<?xml version="1.0" encoding="UTF-8" standalone="no" ?>
<gpx xmlns="http://www.topografix.com/GPX/1/1" xmlns:xsi="http://www.w3.org/2001/XMLSchema-instance" xsi:schemaLocation="http://www.topografix.com/GPX/1/1 http://www.topografix.com/GPX/1/1/gpx.xsd" version="1.1" creator="VisuGPX - https://www.visugpx.com">
  <metadata>
    <name>StCrespinMoine_PierreEcuelleSerpillette_9-21km</name>
    <desc><![CDATA[gnerando idor:7269162_9400780_9395508]]></desc>
  </metadata>
  <trk>
    <name><![CDATA[StCrepinMoine_PierreEcuelleSerpillette_20.7km-7269162]]></name>
    <extensions>
      <line xmlns="http://www.topografix.com/GPX/gpx_style/0/2">
        <color>0000FF</color>
        <width>4</width>
      </line>
    </extensions>
    <trkseg>
      <trkpt lat="47.09928" lon="-1.18678">
        <ele>74</ele>
        <time>2023-11-12T16:10:24Z</time>
      </trkpt>
      <trkpt lat="47.09943" lon="-1.18965">
        <ele>70</ele>
        <time>2023-11-12T16:14:45Z</time>
      </trkpt>
      <trkpt lat="47.10022" lon="-1.19236">
        <ele>63</ele>
        <time>2023-11-12T16:19:13Z</time>
      </trkpt>
      <trkpt lat="47.10121" lon="-1.19446">
        <ele>68</ele>
        <time>2023-11-12T16:23:05Z</time>
      </trkpt>
      <trkpt lat="47.10109" lon="-1.19639">
        <ele>68</ele>
        <time>2023-11-12T16:26:01Z</time>
      </trkpt>
      <trkpt lat="47.10118" lon="-1.19815">
        <ele>66</ele>
        <time>2023-11-12T16:28:42Z</time>
      </trkpt>
      <trkpt lat="47.10051" lon="-1.19901">
        <ele>64</ele>
        <time>2023-11-12T16:30:40Z</time>
      </trkpt>
      <trkpt lat="47.10133" lon="-1.20248">
        <ele>63</ele>
        <time>2023-11-12T16:36:14Z</time>
      </trkpt>
      <trkpt lat="47.0996" lon="-1.2051">
        <ele>56</ele>
        <time>2023-11-12T16:41:46Z</time>
      </trkpt>
      <trkpt lat="47.09943" lon="-1.20648">
        <ele>50</ele>
        <time>2023-11-12T16:43:53Z</time>
      </trkpt>
      <trkpt lat="47.09811" lon="-1.20875">
        <ele>33</ele>
        <time>2023-11-12T16:48:24Z</time>
      </trkpt>
      <trkpt lat="47.09806" lon="-1.21171">
        <ele>30</ele>
        <time>2023-11-12T16:52:53Z</time>
      </trkpt>
      <trkpt lat="47.09882" lon="-1.2133">
        <ele>31</ele>
        <time>2023-11-12T16:55:50Z</time>
      </trkpt>
      <trkpt lat="47.0992" lon="-1.21506">
        <ele>29</ele>
        <time>2023-11-12T16:58:37Z</time>
      </trkpt>
      <trkpt lat="47.09981" lon="-1.21836">
        <ele>34</ele>
        <time>2023-11-12T17:03:48Z</time>
      </trkpt>
      <trkpt lat="47.0999" lon="-1.21995">
        <ele>29</ele>
        <time>2023-11-12T17:06:13Z</time>
      </trkpt>
      <trkpt lat="47.10028" lon="-1.22077">
        <ele>30</ele>
        <time>2023-11-12T17:07:43Z</time>
      </trkpt>
      <trkpt lat="47.10025" lon="-1.22163">
        <ele>29</ele>
        <time>2023-11-12T17:09:01Z</time>
      </trkpt>
      <trkpt lat="47.10048" lon="-1.22287">
        <ele>30</ele>
        <time>2023-11-12T17:10:58Z</time>
      </trkpt>
      <trkpt lat="47.1008" lon="-1.22343">
        <ele>31</ele>
        <time>2023-11-12T17:12:05Z</time>
      </trkpt>
      <trkpt lat="47.10071" lon="-1.22459">
        <ele>28</ele>
        <time>2023-11-12T17:13:51Z</time>
      </trkpt>
      <trkpt lat="47.10089" lon="-1.22622">
        <ele>28</ele>
        <time>2023-11-12T17:16:21Z</time>
      </trkpt>
      <trkpt lat="47.10098" lon="-1.22892">
        <ele>32</ele>
        <time>2023-11-12T17:20:26Z</time>
      </trkpt>
      <trkpt lat="47.10054" lon="-1.23304">
        <ele>38</ele>
        <time>2023-11-12T17:26:45Z</time>
      </trkpt>
      <trkpt lat="47.10229" lon="-1.23394">
        <ele>56</ele>
        <time>2023-11-12T17:30:52Z</time>
      </trkpt>
      <trkpt lat="47.10264" lon="-1.23334">
        <ele>56</ele>
        <time>2023-11-12T17:32:04Z</time>
      </trkpt>
      <trkpt lat="47.10518" lon="-1.2348">
        <ele>63</ele>
        <time>2023-11-12T17:38:08Z</time>
      </trkpt>
      <trkpt lat="47.10323" lon="-1.23716">
        <ele>58</ele>
        <time>2023-11-12T17:43:45Z</time>
      </trkpt>
      <trkpt lat="47.10212" lon="-1.23948">
        <ele>54</ele>
        <time>2023-11-12T17:48:03Z</time>
      </trkpt>
      <trkpt lat="47.10115" lon="-1.24218">
        <ele>48</ele>
        <time>2023-11-12T17:52:40Z</time>
      </trkpt>
      <trkpt lat="47.0999" lon="-1.2451">
        <ele>41</ele>
        <time>2023-11-12T17:57:54Z</time>
      </trkpt>
      <trkpt lat="47.09841" lon="-1.24574">
        <ele>41</ele>
        <time>2023-11-12T18:01:21Z</time>
      </trkpt>
      <trkpt lat="47.09841" lon="-1.24501">
        <ele>44</ele>
        <time>2023-11-12T18:02:27Z</time>
      </trkpt>
      <trkpt lat="47.09677" lon="-1.24416">
        <ele>42</ele>
        <time>2023-11-12T18:06:19Z</time>
      </trkpt>
      <trkpt lat="47.09534" lon="-1.24295">
        <ele>34</ele>
        <time>2023-11-12T18:09:59Z</time>
      </trkpt>
      <trkpt lat="47.09502" lon="-1.24051">
        <ele>31</ele>
        <time>2023-11-12T18:13:45Z</time>
      </trkpt>
      <trkpt lat="47.09513" lon="-1.24038">
        <ele>31</ele>
        <time>2023-11-12T18:14:04Z</time>
      </trkpt>
      <trkpt lat="47.09619" lon="-1.23935">
        <ele>32</ele>
        <time>2023-11-12T18:16:54Z</time>
      </trkpt>
      <trkpt lat="47.09648" lon="-1.23677">
        <ele>30</ele>
        <time>2023-11-12T18:20:51Z</time>
      </trkpt>
      <trkpt lat="47.09648" lon="-1.23441">
        <ele>30</ele>
        <time>2023-11-12T18:24:25Z</time>
      </trkpt>
      <trkpt lat="47.0973" lon="-1.23364">
        <ele>31</ele>
        <time>2023-11-12T18:26:35Z</time>
      </trkpt>
      <trkpt lat="47.09768" lon="-1.2336">
        <ele>34</ele>
        <time>2023-11-12T18:27:26Z</time>
      </trkpt>
      <trkpt lat="47.09817" lon="-1.23304">
        <ele>32</ele>
        <time>2023-11-12T18:28:49Z</time>
      </trkpt>
      <trkpt lat="47.09911" lon="-1.2333">
        <ele>37</ele>
        <time>2023-11-12T18:30:57Z</time>
      </trkpt>
      <trkpt lat="47.09975" lon="-1.2324">
        <ele>27</ele>
        <time>2023-11-12T18:32:55Z</time>
      </trkpt>
      <trkpt lat="47.10036" lon="-1.23347">
        <ele>41</ele>
        <time>2023-11-12T18:35:02Z</time>
      </trkpt>
      <trkpt lat="47.10089" lon="-1.22961">
        <ele>31</ele>
        <time>2023-11-12T18:40:59Z</time>
      </trkpt>
      <trkpt lat="47.10077" lon="-1.22386">
        <ele>30</ele>
        <time>2023-11-12T18:49:42Z</time>
      </trkpt>
      <trkpt lat="47.10074" lon="-1.22308">
        <ele>32</ele>
        <time>2023-11-12T18:50:53Z</time>
      </trkpt>
      <trkpt lat="47.10007" lon="-1.22034">
        <ele>29</ele>
        <time>2023-11-12T18:55:17Z</time>
      </trkpt>
      <trkpt lat="47.09896" lon="-1.21386">
        <ele>32</ele>
        <time>2023-11-12T19:05:24Z</time>
      </trkpt>
      <trkpt lat="47.09803" lon="-1.21124">
        <ele>30</ele>
        <time>2023-11-12T19:09:53Z</time>
      </trkpt>
      <trkpt lat="47.09823" lon="-1.20836">
        <ele>35</ele>
        <time>2023-11-12T19:14:16Z</time>
      </trkpt>
      <trkpt lat="47.09882" lon="-1.20763">
        <ele>43</ele>
        <time>2023-11-12T19:15:59Z</time>
      </trkpt>
      <trkpt lat="47.09814" lon="-1.20472">
        <ele>41</ele>
        <time>2023-11-12T19:20:38Z</time>
      </trkpt>
      <trkpt lat="47.09855" lon="-1.20343">
        <ele>43</ele>
        <time>2023-11-12T19:22:48Z</time>
      </trkpt>
      <trkpt lat="47.09835" lon="-1.20197">
        <ele>40</ele>
        <time>2023-11-12T19:25:03Z</time>
      </trkpt>
      <trkpt lat="47.09876" lon="-1.20051">
        <ele>50</ele>
        <time>2023-11-12T19:27:26Z</time>
      </trkpt>
      <trkpt lat="47.09762" lon="-1.1997">
        <ele>36</ele>
        <time>2023-11-12T19:30:15Z</time>
      </trkpt>
      <trkpt lat="47.09636" lon="-1.1945">
        <ele>35</ele>
        <time>2023-11-12T19:38:37Z</time>
      </trkpt>
      <trkpt lat="47.09677" lon="-1.1936">
        <ele>38</ele>
        <time>2023-11-12T19:40:15Z</time>
      </trkpt>
      <trkpt lat="47.09604" lon="-1.19356">
        <ele>32</ele>
        <time>2023-11-12T19:41:53Z</time>
      </trkpt>
      <trkpt lat="47.09584" lon="-1.18995">
        <ele>31</ele>
        <time>2023-11-12T19:47:22Z</time>
      </trkpt>
      <trkpt lat="47.09627" lon="-1.18725">
        <ele>41</ele>
        <time>2023-11-12T19:51:34Z</time>
      </trkpt>
      <trkpt lat="47.09689" lon="-1.18716">
        <ele>51</ele>
        <time>2023-11-12T19:52:57Z</time>
      </trkpt>
      <trkpt lat="47.09712" lon="-1.18643">
        <ele>54</ele>
        <time>2023-11-12T19:54:10Z</time>
      </trkpt>
      <trkpt lat="47.0987" lon="-1.18643">
        <ele>70</ele>
        <time>2023-11-12T19:57:41Z</time>
      </trkpt>
      <trkpt lat="47.09931" lon="-1.18802">
        <ele>72</ele>
        <time>2023-11-12T20:00:26Z</time>
      </trkpt>
      <trkpt lat="47.0999" lon="-1.18661">
        <ele>75</ele>
        <time>2023-11-12T20:02:57Z</time>
      </trkpt>
      <trkpt lat="47.10109" lon="-1.18682">
        <ele>74</ele>
        <time>2023-11-12T20:05:37Z</time>
      </trkpt>
      <trkpt lat="47.10139" lon="-1.18798">
        <ele>73</ele>
        <time>2023-11-12T20:07:29Z</time>
      </trkpt>
      <trkpt lat="47.10261" lon="-1.18815">
        <ele>72</ele>
        <time>2023-11-12T20:10:13Z</time>
      </trkpt>
      <trkpt lat="47.10402" lon="-1.18905">
        <ele>76</ele>
        <time>2023-11-12T20:13:38Z</time>
      </trkpt>
      <trkpt lat="47.10606" lon="-1.18918">
        <ele>83</ele>
        <time>2023-11-12T20:18:11Z</time>
      </trkpt>
      <trkpt lat="47.10653" lon="-1.18884">
        <ele>83</ele>
        <time>2023-11-12T20:19:20Z</time>
      </trkpt>
      <trkpt lat="47.11024" lon="-1.18626">
        <ele>84</ele>
        <time>2023-11-12T20:28:28Z</time>
      </trkpt>
      <trkpt lat="47.11097" lon="-1.1848">
        <ele>85</ele>
        <time>2023-11-12T20:31:13Z</time>
      </trkpt>
      <trkpt lat="47.11249" lon="-1.18412">
        <ele>83</ele>
        <time>2023-11-12T20:34:45Z</time>
      </trkpt>
      <trkpt lat="47.11348" lon="-1.18596">
        <ele>82</ele>
        <time>2023-11-12T20:38:18Z</time>
      </trkpt>
      <trkpt lat="47.1152" lon="-1.18498">
        <ele>86</ele>
        <time>2023-11-12T20:42:24Z</time>
      </trkpt>
      <trkpt lat="47.11932" lon="-1.18605">
        <ele>90</ele>
        <time>2023-11-12T20:51:42Z</time>
      </trkpt>
      <trkpt lat="47.12084" lon="-1.18652">
        <ele>87</ele>
        <time>2023-11-12T20:55:10Z</time>
      </trkpt>
      <trkpt lat="47.12101" lon="-1.1839">
        <ele>88</ele>
        <time>2023-11-12T20:59:09Z</time>
      </trkpt>
      <trkpt lat="47.11999" lon="-1.18326">
        <ele>90</ele>
        <time>2023-11-12T21:01:37Z</time>
      </trkpt>
      <trkpt lat="47.11976" lon="-1.17948">
        <ele>89</ele>
        <time>2023-11-12T21:07:21Z</time>
      </trkpt>
      <trkpt lat="47.1192" lon="-1.17755">
        <ele>87</ele>
        <time>2023-11-12T21:10:32Z</time>
      </trkpt>
      <trkpt lat="47.11701" lon="-1.17892">
        <ele>88</ele>
        <time>2023-11-12T21:15:49Z</time>
      </trkpt>
      <trkpt lat="47.1136" lon="-1.17455">
        <ele>89</ele>
        <time>2023-11-12T21:25:53Z</time>
      </trkpt>
      <trkpt lat="47.11141" lon="-1.17004">
        <ele>90</ele>
        <time>2023-11-12T21:34:16Z</time>
      </trkpt>
      <trkpt lat="47.10948" lon="-1.1709">
        <ele>90</ele>
        <time>2023-11-12T21:38:45Z</time>
      </trkpt>
      <trkpt lat="47.10805" lon="-1.17081">
        <ele>87</ele>
        <time>2023-11-12T21:41:56Z</time>
      </trkpt>
      <trkpt lat="47.10533" lon="-1.17141">
        <ele>77</ele>
        <time>2023-11-12T21:48:03Z</time>
      </trkpt>
      <trkpt lat="47.10445" lon="-1.16983">
        <ele>79</ele>
        <time>2023-11-12T21:51:09Z</time>
      </trkpt>
      <trkpt lat="47.10366" lon="-1.16983">
        <ele>76</ele>
        <time>2023-11-12T21:52:54Z</time>
      </trkpt>
      <trkpt lat="47.1032" lon="-1.17068">
        <ele>75</ele>
        <time>2023-11-12T21:54:33Z</time>
      </trkpt>
      <trkpt lat="47.10185" lon="-1.17163">
        <ele>70</ele>
        <time>2023-11-12T21:57:53Z</time>
      </trkpt>
      <trkpt lat="47.10048" lon="-1.17257">
        <ele>63</ele>
        <time>2023-11-12T22:01:15Z</time>
      </trkpt>
      <trkpt lat="47.09995" lon="-1.17017">
        <ele>57</ele>
        <time>2023-11-12T22:05:04Z</time>
      </trkpt>
      <trkpt lat="47.09993" lon="-1.16811">
        <ele>69</ele>
        <time>2023-11-12T22:08:11Z</time>
      </trkpt>
      <trkpt lat="47.09905" lon="-1.16901">
        <ele>68</ele>
        <time>2023-11-12T22:10:34Z</time>
      </trkpt>
      <trkpt lat="47.09797" lon="-1.16927">
        <ele>70</ele>
        <time>2023-11-12T22:13:00Z</time>
      </trkpt>
      <trkpt lat="47.09589" lon="-1.17193">
        <ele>57</ele>
        <time>2023-11-12T22:19:08Z</time>
      </trkpt>
      <trkpt lat="47.09423" lon="-1.17356">
        <ele>34</ele>
        <time>2023-11-12T22:23:34Z</time>
      </trkpt>
      <trkpt lat="47.09408" lon="-1.17618">
        <ele>33</ele>
        <time>2023-11-12T22:27:33Z</time>
      </trkpt>
      <trkpt lat="47.09531" lon="-1.17785">
        <ele>35</ele>
        <time>2023-11-12T22:31:17Z</time>
      </trkpt>
      <trkpt lat="47.09589" lon="-1.17953">
        <ele>33</ele>
        <time>2023-11-12T22:34:08Z</time>
      </trkpt>
      <trkpt lat="47.09733" lon="-1.17983">
        <ele>41</ele>
        <time>2023-11-12T22:37:22Z</time>
      </trkpt>
      <trkpt lat="47.10191" lon="-1.17871">
        <ele>73</ele>
        <time>2023-11-12T22:47:42Z</time>
      </trkpt>
      <trkpt lat="47.10229" lon="-1.17991">
        <ele>73</ele>
        <time>2023-11-12T22:49:42Z</time>
      </trkpt>
      <trkpt lat="47.10185" lon="-1.18197">
        <ele>64</ele>
        <time>2023-11-12T22:52:58Z</time>
      </trkpt>
      <trkpt lat="47.1013" lon="-1.18317">
        <ele>61</ele>
        <time>2023-11-12T22:55:09Z</time>
      </trkpt>
      <trkpt lat="47.09981" lon="-1.18476">
        <ele>70</ele>
        <time>2023-11-12T22:59:15Z</time>
      </trkpt>
      <trkpt lat="47.09975" lon="-1.18708">
        <ele>74</ele>
        <time>2023-11-12T23:02:46Z</time>
      </trkpt>
      <trkpt lat="47.09928" lon="-1.18682">
        <ele>74</ele>
        <time>2023-11-12T23:03:53Z</time>
      </trkpt>
    </trkseg>
  </trk>
  <trk>
    <name><![CDATA[StCrespin_PierreEcuelleSerpillette_19.5km-9400780]]></name>
    <extensions>
      <line xmlns="http://www.topografix.com/GPX/gpx_style/0/2">
        <color>00FF00</color>
        <width>4</width>
      </line>
    </extensions>
    <trkseg>
      <trkpt lat="47.09738" lon="-1.18635">
        <ele>57</ele>
        <time>2023-11-12T16:10:16Z</time>
      </trkpt>
      <trkpt lat="47.09756" lon="-1.18643">
        <ele>59</ele>
        <time>2023-11-12T16:10:41Z</time>
      </trkpt>
      <trkpt lat="47.09796" lon="-1.18641">
        <ele>63</ele>
        <time>2023-11-12T16:11:35Z</time>
      </trkpt>
      <trkpt lat="47.09816" lon="-1.18636">
        <ele>65</ele>
        <time>2023-11-12T16:12:02Z</time>
      </trkpt>
      <trkpt lat="47.09853" lon="-1.18638">
        <ele>69</ele>
        <time>2023-11-12T16:12:51Z</time>
      </trkpt>
      <trkpt lat="47.09872" lon="-1.18634">
        <ele>70</ele>
        <time>2023-11-12T16:13:17Z</time>
      </trkpt>
      <trkpt lat="47.09888" lon="-1.18651">
        <ele>71</ele>
        <time>2023-11-12T16:13:43Z</time>
      </trkpt>
      <trkpt lat="47.09899" lon="-1.18676">
        <ele>72</ele>
        <time>2023-11-12T16:14:10Z</time>
      </trkpt>
      <trkpt lat="47.09913" lon="-1.18694">
        <ele>73</ele>
        <time>2023-11-12T16:14:35Z</time>
      </trkpt>
      <trkpt lat="47.09924" lon="-1.18718">
        <ele>73</ele>
        <time>2023-11-12T16:15:01Z</time>
      </trkpt>
      <trkpt lat="47.0993" lon="-1.18804">
        <ele>72</ele>
        <time>2023-11-12T16:16:20Z</time>
      </trkpt>
      <trkpt lat="47.09949" lon="-1.18802">
        <ele>73</ele>
        <time>2023-11-12T16:16:45Z</time>
      </trkpt>
      <trkpt lat="47.09933" lon="-1.18816">
        <ele>72</ele>
        <time>2023-11-12T16:17:10Z</time>
      </trkpt>
      <trkpt lat="47.09933" lon="-1.18876">
        <ele>71</ele>
        <time>2023-11-12T16:18:04Z</time>
      </trkpt>
      <trkpt lat="47.09936" lon="-1.18905">
        <ele>71</ele>
        <time>2023-11-12T16:18:31Z</time>
      </trkpt>
      <trkpt lat="47.09957" lon="-1.19015">
        <ele>69</ele>
        <time>2023-11-12T16:20:15Z</time>
      </trkpt>
      <trkpt lat="47.0996" lon="-1.19041">
        <ele>69</ele>
        <time>2023-11-12T16:20:39Z</time>
      </trkpt>
      <trkpt lat="47.10008" lon="-1.19195">
        <ele>65</ele>
        <time>2023-11-12T16:23:13Z</time>
      </trkpt>
      <trkpt lat="47.10019" lon="-1.19248">
        <ele>62</ele>
        <time>2023-11-12T16:24:03Z</time>
      </trkpt>
      <trkpt lat="47.10072" lon="-1.19365">
        <ele>65</ele>
        <time>2023-11-12T16:26:11Z</time>
      </trkpt>
      <trkpt lat="47.10113" lon="-1.19426">
        <ele>68</ele>
        <time>2023-11-12T16:27:29Z</time>
      </trkpt>
      <trkpt lat="47.1012" lon="-1.19479">
        <ele>69</ele>
        <time>2023-11-12T16:28:18Z</time>
      </trkpt>
      <trkpt lat="47.1012" lon="-1.19508">
        <ele>69</ele>
        <time>2023-11-12T16:28:44Z</time>
      </trkpt>
      <trkpt lat="47.10108" lon="-1.19561">
        <ele>69</ele>
        <time>2023-11-12T16:29:35Z</time>
      </trkpt>
      <trkpt lat="47.10107" lon="-1.1959">
        <ele>68</ele>
        <time>2023-11-12T16:30:01Z</time>
      </trkpt>
      <trkpt lat="47.10108" lon="-1.19646">
        <ele>68</ele>
        <time>2023-11-12T16:30:52Z</time>
      </trkpt>
      <trkpt lat="47.10118" lon="-1.19758">
        <ele>67</ele>
        <time>2023-11-12T16:32:35Z</time>
      </trkpt>
      <trkpt lat="47.10119" lon="-1.19785">
        <ele>66</ele>
        <time>2023-11-12T16:32:59Z</time>
      </trkpt>
      <trkpt lat="47.10116" lon="-1.19813">
        <ele>66</ele>
        <time>2023-11-12T16:33:25Z</time>
      </trkpt>
      <trkpt lat="47.10103" lon="-1.19836">
        <ele>65</ele>
        <time>2023-11-12T16:33:52Z</time>
      </trkpt>
      <trkpt lat="47.10059" lon="-1.19891">
        <ele>64</ele>
        <time>2023-11-12T16:35:09Z</time>
      </trkpt>
      <trkpt lat="47.10054" lon="-1.19917">
        <ele>64</ele>
        <time>2023-11-12T16:35:34Z</time>
      </trkpt>
      <trkpt lat="47.10089" lon="-1.20046">
        <ele>64</ele>
        <time>2023-11-12T16:37:40Z</time>
      </trkpt>
      <trkpt lat="47.10094" lon="-1.20075">
        <ele>63</ele>
        <time>2023-11-12T16:38:07Z</time>
      </trkpt>
      <trkpt lat="47.10108" lon="-1.20125">
        <ele>64</ele>
        <time>2023-11-12T16:38:56Z</time>
      </trkpt>
      <trkpt lat="47.10133" lon="-1.20235">
        <ele>64</ele>
        <time>2023-11-12T16:40:41Z</time>
      </trkpt>
      <trkpt lat="47.10128" lon="-1.20262">
        <ele>63</ele>
        <time>2023-11-12T16:41:07Z</time>
      </trkpt>
      <trkpt lat="47.10114" lon="-1.20278">
        <ele>63</ele>
        <time>2023-11-12T16:41:30Z</time>
      </trkpt>
      <trkpt lat="47.10088" lon="-1.20318">
        <ele>62</ele>
        <time>2023-11-12T16:42:21Z</time>
      </trkpt>
      <trkpt lat="47.09977" lon="-1.20471">
        <ele>57</ele>
        <time>2023-11-12T16:45:44Z</time>
      </trkpt>
      <trkpt lat="47.09967" lon="-1.20494">
        <ele>56</ele>
        <time>2023-11-12T16:46:09Z</time>
      </trkpt>
      <trkpt lat="47.09961" lon="-1.20519">
        <ele>55</ele>
        <time>2023-11-12T16:46:33Z</time>
      </trkpt>
      <trkpt lat="47.0996" lon="-1.20547">
        <ele>54</ele>
        <time>2023-11-12T16:46:58Z</time>
      </trkpt>
      <trkpt lat="47.09955" lon="-1.20576">
        <ele>53</ele>
        <time>2023-11-12T16:47:25Z</time>
      </trkpt>
      <trkpt lat="47.09942" lon="-1.20633">
        <ele>50</ele>
        <time>2023-11-12T16:48:20Z</time>
      </trkpt>
      <trkpt lat="47.09933" lon="-1.20657">
        <ele>49</ele>
        <time>2023-11-12T16:48:45Z</time>
      </trkpt>
      <trkpt lat="47.09902" lon="-1.20729">
        <ele>45</ele>
        <time>2023-11-12T16:50:02Z</time>
      </trkpt>
      <trkpt lat="47.0989" lon="-1.20753">
        <ele>44</ele>
        <time>2023-11-12T16:50:29Z</time>
      </trkpt>
      <trkpt lat="47.09876" lon="-1.20774">
        <ele>42</ele>
        <time>2023-11-12T16:50:56Z</time>
      </trkpt>
      <trkpt lat="47.09842" lon="-1.20845">
        <ele>36</ele>
        <time>2023-11-12T16:52:15Z</time>
      </trkpt>
      <trkpt lat="47.09814" lon="-1.20884">
        <ele>32</ele>
        <time>2023-11-12T16:53:06Z</time>
      </trkpt>
      <trkpt lat="47.09807" lon="-1.20936">
        <ele>30</ele>
        <time>2023-11-12T16:53:55Z</time>
      </trkpt>
      <trkpt lat="47.09798" lon="-1.2108">
        <ele>30</ele>
        <time>2023-11-12T16:56:06Z</time>
      </trkpt>
      <trkpt lat="47.09807" lon="-1.21163">
        <ele>30</ele>
        <time>2023-11-12T16:57:22Z</time>
      </trkpt>
      <trkpt lat="47.09813" lon="-1.2119">
        <ele>30</ele>
        <time>2023-11-12T16:57:48Z</time>
      </trkpt>
      <trkpt lat="47.09823" lon="-1.21215">
        <ele>30</ele>
        <time>2023-11-12T16:58:14Z</time>
      </trkpt>
      <trkpt lat="47.09858" lon="-1.21284">
        <ele>30</ele>
        <time>2023-11-12T16:59:33Z</time>
      </trkpt>
      <trkpt lat="47.09867" lon="-1.21308">
        <ele>31</ele>
        <time>2023-11-12T16:59:57Z</time>
      </trkpt>
      <trkpt lat="47.09891" lon="-1.21387">
        <ele>32</ele>
        <time>2023-11-12T17:01:16Z</time>
      </trkpt>
      <trkpt lat="47.09895" lon="-1.21415">
        <ele>32</ele>
        <time>2023-11-12T17:01:42Z</time>
      </trkpt>
      <trkpt lat="47.09923" lon="-1.21518">
        <ele>29</ele>
        <time>2023-11-12T17:03:23Z</time>
      </trkpt>
      <trkpt lat="47.09925" lon="-1.21544">
        <ele>29</ele>
        <time>2023-11-12T17:03:47Z</time>
      </trkpt>
      <trkpt lat="47.09921" lon="-1.2157">
        <ele>29</ele>
        <time>2023-11-12T17:04:11Z</time>
      </trkpt>
      <trkpt lat="47.09908" lon="-1.21591">
        <ele>28</ele>
        <time>2023-11-12T17:04:37Z</time>
      </trkpt>
      <trkpt lat="47.09916" lon="-1.21615">
        <ele>28</ele>
        <time>2023-11-12T17:05:01Z</time>
      </trkpt>
      <trkpt lat="47.09941" lon="-1.21659">
        <ele>32</ele>
        <time>2023-11-12T17:05:53Z</time>
      </trkpt>
      <trkpt lat="47.09957" lon="-1.2174">
        <ele>34</ele>
        <time>2023-11-12T17:07:09Z</time>
      </trkpt>
      <trkpt lat="47.09959" lon="-1.21768">
        <ele>33</ele>
        <time>2023-11-12T17:07:35Z</time>
      </trkpt>
      <trkpt lat="47.09967" lon="-1.21796">
        <ele>33</ele>
        <time>2023-11-12T17:08:03Z</time>
      </trkpt>
      <trkpt lat="47.09972" lon="-1.21825">
        <ele>33</ele>
        <time>2023-11-12T17:08:30Z</time>
      </trkpt>
      <trkpt lat="47.09974" lon="-1.21884">
        <ele>31</ele>
        <time>2023-11-12T17:09:23Z</time>
      </trkpt>
      <trkpt lat="47.09981" lon="-1.21939">
        <ele>29</ele>
        <time>2023-11-12T17:10:14Z</time>
      </trkpt>
      <trkpt lat="47.09993" lon="-1.21992">
        <ele>29</ele>
        <time>2023-11-12T17:11:05Z</time>
      </trkpt>
      <trkpt lat="47.10003" lon="-1.22019">
        <ele>29</ele>
        <time>2023-11-12T17:11:33Z</time>
      </trkpt>
      <trkpt lat="47.10025" lon="-1.22061">
        <ele>30</ele>
        <time>2023-11-12T17:12:21Z</time>
      </trkpt>
      <trkpt lat="47.10019" lon="-1.22119">
        <ele>29</ele>
        <time>2023-11-12T17:13:14Z</time>
      </trkpt>
      <trkpt lat="47.10026" lon="-1.22198">
        <ele>29</ele>
        <time>2023-11-12T17:14:27Z</time>
      </trkpt>
      <trkpt lat="47.10037" lon="-1.22256">
        <ele>30</ele>
        <time>2023-11-12T17:15:21Z</time>
      </trkpt>
      <trkpt lat="47.10045" lon="-1.22281">
        <ele>30</ele>
        <time>2023-11-12T17:15:47Z</time>
      </trkpt>
      <trkpt lat="47.10061" lon="-1.22297">
        <ele>31</ele>
        <time>2023-11-12T17:16:12Z</time>
      </trkpt>
      <trkpt lat="47.10075" lon="-1.22318">
        <ele>32</ele>
        <time>2023-11-12T17:16:39Z</time>
      </trkpt>
      <trkpt lat="47.10082" lon="-1.22342">
        <ele>32</ele>
        <time>2023-11-12T17:17:03Z</time>
      </trkpt>
      <trkpt lat="47.1008" lon="-1.2237">
        <ele>30</ele>
        <time>2023-11-12T17:17:28Z</time>
      </trkpt>
      <trkpt lat="47.10074" lon="-1.22395">
        <ele>29</ele>
        <time>2023-11-12T17:17:52Z</time>
      </trkpt>
      <trkpt lat="47.10069" lon="-1.22451">
        <ele>28</ele>
        <time>2023-11-12T17:18:44Z</time>
      </trkpt>
      <trkpt lat="47.1009" lon="-1.2259">
        <ele>28</ele>
        <time>2023-11-12T17:20:53Z</time>
      </trkpt>
      <trkpt lat="47.10088" lon="-1.22617">
        <ele>28</ele>
        <time>2023-11-12T17:21:18Z</time>
      </trkpt>
      <trkpt lat="47.10089" lon="-1.22645">
        <ele>28</ele>
        <time>2023-11-12T17:21:43Z</time>
      </trkpt>
      <trkpt lat="47.10082" lon="-1.22727">
        <ele>29</ele>
        <time>2023-11-12T17:22:58Z</time>
      </trkpt>
      <trkpt lat="47.10084" lon="-1.22782">
        <ele>30</ele>
        <time>2023-11-12T17:23:48Z</time>
      </trkpt>
      <trkpt lat="47.10092" lon="-1.22865">
        <ele>31</ele>
        <time>2023-11-12T17:25:04Z</time>
      </trkpt>
      <trkpt lat="47.10098" lon="-1.22892">
        <ele>32</ele>
        <time>2023-11-12T17:25:30Z</time>
      </trkpt>
      <trkpt lat="47.10085" lon="-1.22947">
        <ele>30</ele>
        <time>2023-11-12T17:26:23Z</time>
      </trkpt>
      <trkpt lat="47.10084" lon="-1.22974">
        <ele>30</ele>
        <time>2023-11-12T17:26:48Z</time>
      </trkpt>
      <trkpt lat="47.10072" lon="-1.23057">
        <ele>30</ele>
        <time>2023-11-12T17:28:05Z</time>
      </trkpt>
      <trkpt lat="47.10073" lon="-1.23113">
        <ele>31</ele>
        <time>2023-11-12T17:28:56Z</time>
      </trkpt>
      <trkpt lat="47.10066" lon="-1.23224">
        <ele>34</ele>
        <time>2023-11-12T17:30:37Z</time>
      </trkpt>
      <trkpt lat="47.10062" lon="-1.23251">
        <ele>35</ele>
        <time>2023-11-12T17:31:02Z</time>
      </trkpt>
      <trkpt lat="47.10046" lon="-1.23304">
        <ele>37</ele>
        <time>2023-11-12T17:31:55Z</time>
      </trkpt>
      <trkpt lat="47.10044" lon="-1.23331">
        <ele>39</ele>
        <time>2023-11-12T17:32:19Z</time>
      </trkpt>
      <trkpt lat="47.10031" lon="-1.23383">
        <ele>45</ele>
        <time>2023-11-12T17:33:10Z</time>
      </trkpt>
      <trkpt lat="47.10016" lon="-1.23488">
        <ele>54</ele>
        <time>2023-11-12T17:34:47Z</time>
      </trkpt>
      <trkpt lat="47.10014" lon="-1.23517">
        <ele>55</ele>
        <time>2023-11-12T17:35:14Z</time>
      </trkpt>
      <trkpt lat="47.09997" lon="-1.23526">
        <ele>56</ele>
        <time>2023-11-12T17:35:38Z</time>
      </trkpt>
      <trkpt lat="47.09962" lon="-1.23511">
        <ele>59</ele>
        <time>2023-11-12T17:36:26Z</time>
      </trkpt>
      <trkpt lat="47.09943" lon="-1.23514">
        <ele>60</ele>
        <time>2023-11-12T17:36:52Z</time>
      </trkpt>
      <trkpt lat="47.0993" lon="-1.23494">
        <ele>61</ele>
        <time>2023-11-12T17:37:17Z</time>
      </trkpt>
      <trkpt lat="47.09924" lon="-1.23468">
        <ele>60</ele>
        <time>2023-11-12T17:37:42Z</time>
      </trkpt>
      <trkpt lat="47.09906" lon="-1.23474">
        <ele>61</ele>
        <time>2023-11-12T17:38:07Z</time>
      </trkpt>
      <trkpt lat="47.09892" lon="-1.23492">
        <ele>60</ele>
        <time>2023-11-12T17:38:31Z</time>
      </trkpt>
      <trkpt lat="47.09903" lon="-1.23471">
        <ele>60</ele>
        <time>2023-11-12T17:38:56Z</time>
      </trkpt>
      <trkpt lat="47.09918" lon="-1.23457">
        <ele>60</ele>
        <time>2023-11-12T17:39:19Z</time>
      </trkpt>
      <trkpt lat="47.09916" lon="-1.2343">
        <ele>59</ele>
        <time>2023-11-12T17:39:44Z</time>
      </trkpt>
      <trkpt lat="47.09899" lon="-1.23416">
        <ele>57</ele>
        <time>2023-11-12T17:40:10Z</time>
      </trkpt>
      <trkpt lat="47.09881" lon="-1.23409">
        <ele>55</ele>
        <time>2023-11-12T17:40:35Z</time>
      </trkpt>
      <trkpt lat="47.09864" lon="-1.23424">
        <ele>56</ele>
        <time>2023-11-12T17:41:01Z</time>
      </trkpt>
      <trkpt lat="47.09849" lon="-1.23405">
        <ele>52</ele>
        <time>2023-11-12T17:41:28Z</time>
      </trkpt>
      <trkpt lat="47.0984" lon="-1.23382">
        <ele>47</ele>
        <time>2023-11-12T17:41:52Z</time>
      </trkpt>
      <trkpt lat="47.09825" lon="-1.23397">
        <ele>48</ele>
        <time>2023-11-12T17:42:16Z</time>
      </trkpt>
      <trkpt lat="47.09806" lon="-1.23404">
        <ele>46</ele>
        <time>2023-11-12T17:42:42Z</time>
      </trkpt>
      <trkpt lat="47.09788" lon="-1.23407">
        <ele>43</ele>
        <time>2023-11-12T17:43:06Z</time>
      </trkpt>
      <trkpt lat="47.09771" lon="-1.23397">
        <ele>38</ele>
        <time>2023-11-12T17:43:31Z</time>
      </trkpt>
      <trkpt lat="47.09754" lon="-1.23383">
        <ele>34</ele>
        <time>2023-11-12T17:43:57Z</time>
      </trkpt>
      <trkpt lat="47.09756" lon="-1.23356">
        <ele>32</ele>
        <time>2023-11-12T17:44:21Z</time>
      </trkpt>
      <trkpt lat="47.0974" lon="-1.23371">
        <ele>32</ele>
        <time>2023-11-12T17:44:47Z</time>
      </trkpt>
      <trkpt lat="47.09723" lon="-1.23381">
        <ele>31</ele>
        <time>2023-11-12T17:45:11Z</time>
      </trkpt>
      <trkpt lat="47.09708" lon="-1.23398">
        <ele>31</ele>
        <time>2023-11-12T17:45:36Z</time>
      </trkpt>
      <trkpt lat="47.09674" lon="-1.23428">
        <ele>27</ele>
        <time>2023-11-12T17:46:29Z</time>
      </trkpt>
      <trkpt lat="47.09664" lon="-1.23452">
        <ele>27</ele>
        <time>2023-11-12T17:46:55Z</time>
      </trkpt>
      <trkpt lat="47.09652" lon="-1.23501">
        <ele>29</ele>
        <time>2023-11-12T17:47:42Z</time>
      </trkpt>
      <trkpt lat="47.09648" lon="-1.23528">
        <ele>30</ele>
        <time>2023-11-12T17:48:07Z</time>
      </trkpt>
      <trkpt lat="47.09644" lon="-1.23556">
        <ele>31</ele>
        <time>2023-11-12T17:48:33Z</time>
      </trkpt>
      <trkpt lat="47.09643" lon="-1.23639">
        <ele>31</ele>
        <time>2023-11-12T17:49:49Z</time>
      </trkpt>
      <trkpt lat="47.09652" lon="-1.23665">
        <ele>29</ele>
        <time>2023-11-12T17:50:15Z</time>
      </trkpt>
      <trkpt lat="47.0967" lon="-1.23668">
        <ele>28</ele>
        <time>2023-11-12T17:50:39Z</time>
      </trkpt>
      <trkpt lat="47.09686" lon="-1.2368">
        <ele>31</ele>
        <time>2023-11-12T17:51:03Z</time>
      </trkpt>
      <trkpt lat="47.09649" lon="-1.2367">
        <ele>30</ele>
        <time>2023-11-12T17:51:54Z</time>
      </trkpt>
      <trkpt lat="47.09649" lon="-1.23727">
        <ele>30</ele>
        <time>2023-11-12T17:52:45Z</time>
      </trkpt>
      <trkpt lat="47.09656" lon="-1.23835">
        <ele>30</ele>
        <time>2023-11-12T17:54:24Z</time>
      </trkpt>
      <trkpt lat="47.09653" lon="-1.23862">
        <ele>31</ele>
        <time>2023-11-12T17:54:49Z</time>
      </trkpt>
      <trkpt lat="47.09647" lon="-1.23888">
        <ele>31</ele>
        <time>2023-11-12T17:55:14Z</time>
      </trkpt>
      <trkpt lat="47.09624" lon="-1.23936">
        <ele>33</ele>
        <time>2023-11-12T17:56:07Z</time>
      </trkpt>
      <trkpt lat="47.09595" lon="-1.2397">
        <ele>35</ele>
        <time>2023-11-12T17:56:57Z</time>
      </trkpt>
      <trkpt lat="47.09578" lon="-1.23987">
        <ele>35</ele>
        <time>2023-11-12T17:57:24Z</time>
      </trkpt>
      <trkpt lat="47.09544" lon="-1.2401">
        <ele>33</ele>
        <time>2023-11-12T17:58:14Z</time>
      </trkpt>
      <trkpt lat="47.09527" lon="-1.24016">
        <ele>31</ele>
        <time>2023-11-12T17:58:37Z</time>
      </trkpt>
      <trkpt lat="47.09511" lon="-1.24031">
        <ele>30</ele>
        <time>2023-11-12T17:59:03Z</time>
      </trkpt>
      <trkpt lat="47.09503" lon="-1.24055">
        <ele>32</ele>
        <time>2023-11-12T17:59:27Z</time>
      </trkpt>
      <trkpt lat="47.09501" lon="-1.24082">
        <ele>34</ele>
        <time>2023-11-12T17:59:52Z</time>
      </trkpt>
      <trkpt lat="47.09504" lon="-1.24137">
        <ele>34</ele>
        <time>2023-11-12T18:00:42Z</time>
      </trkpt>
      <trkpt lat="47.09508" lon="-1.24164">
        <ele>35</ele>
        <time>2023-11-12T18:01:07Z</time>
      </trkpt>
      <trkpt lat="47.09519" lon="-1.24189">
        <ele>35</ele>
        <time>2023-11-12T18:01:34Z</time>
      </trkpt>
      <trkpt lat="47.09535" lon="-1.24203">
        <ele>37</ele>
        <time>2023-11-12T18:01:59Z</time>
      </trkpt>
      <trkpt lat="47.09533" lon="-1.2423">
        <ele>35</ele>
        <time>2023-11-12T18:02:23Z</time>
      </trkpt>
      <trkpt lat="47.09534" lon="-1.24285">
        <ele>34</ele>
        <time>2023-11-12T18:03:13Z</time>
      </trkpt>
      <trkpt lat="47.09585" lon="-1.24327">
        <ele>38</ele>
        <time>2023-11-12T18:04:31Z</time>
      </trkpt>
      <trkpt lat="47.09603" lon="-1.24338">
        <ele>39</ele>
        <time>2023-11-12T18:04:57Z</time>
      </trkpt>
      <trkpt lat="47.09612" lon="-1.24364">
        <ele>39</ele>
        <time>2023-11-12T18:05:24Z</time>
      </trkpt>
      <trkpt lat="47.09648" lon="-1.24383">
        <ele>41</ele>
        <time>2023-11-12T18:06:15Z</time>
      </trkpt>
      <trkpt lat="47.09663" lon="-1.24398">
        <ele>41</ele>
        <time>2023-11-12T18:06:39Z</time>
      </trkpt>
      <trkpt lat="47.09713" lon="-1.24437">
        <ele>44</ele>
        <time>2023-11-12T18:07:55Z</time>
      </trkpt>
      <trkpt lat="47.09808" lon="-1.24481">
        <ele>45</ele>
        <time>2023-11-12T18:10:08Z</time>
      </trkpt>
      <trkpt lat="47.09826" lon="-1.24492">
        <ele>44</ele>
        <time>2023-11-12T18:10:34Z</time>
      </trkpt>
      <trkpt lat="47.09841" lon="-1.24506">
        <ele>44</ele>
        <time>2023-11-12T18:10:57Z</time>
      </trkpt>
      <trkpt lat="47.09837" lon="-1.24563">
        <ele>42</ele>
        <time>2023-11-12T18:11:49Z</time>
      </trkpt>
      <trkpt lat="47.09856" lon="-1.24567">
        <ele>41</ele>
        <time>2023-11-12T18:12:15Z</time>
      </trkpt>
      <trkpt lat="47.09896" lon="-1.24556">
        <ele>41</ele>
        <time>2023-11-12T18:13:09Z</time>
      </trkpt>
      <trkpt lat="47.09931" lon="-1.24533">
        <ele>41</ele>
        <time>2023-11-12T18:14:01Z</time>
      </trkpt>
      <trkpt lat="47.09986" lon="-1.24508">
        <ele>41</ele>
        <time>2023-11-12T18:15:17Z</time>
      </trkpt>
      <trkpt lat="47.1" lon="-1.24489">
        <ele>42</ele>
        <time>2023-11-12T18:15:43Z</time>
      </trkpt>
      <trkpt lat="47.10039" lon="-1.24395">
        <ele>45</ele>
        <time>2023-11-12T18:17:23Z</time>
      </trkpt>
      <trkpt lat="47.10066" lon="-1.24316">
        <ele>46</ele>
        <time>2023-11-12T18:18:43Z</time>
      </trkpt>
      <trkpt lat="47.10073" lon="-1.24288">
        <ele>46</ele>
        <time>2023-11-12T18:19:10Z</time>
      </trkpt>
      <trkpt lat="47.10095" lon="-1.24243">
        <ele>47</ele>
        <time>2023-11-12T18:20:01Z</time>
      </trkpt>
      <trkpt lat="47.10114" lon="-1.24192">
        <ele>49</ele>
        <time>2023-11-12T18:20:53Z</time>
      </trkpt>
      <trkpt lat="47.10118" lon="-1.24163">
        <ele>50</ele>
        <time>2023-11-12T18:21:20Z</time>
      </trkpt>
      <trkpt lat="47.10144" lon="-1.24059">
        <ele>53</ele>
        <time>2023-11-12T18:23:01Z</time>
      </trkpt>
      <trkpt lat="47.10144" lon="-1.2403">
        <ele>54</ele>
        <time>2023-11-12T18:23:27Z</time>
      </trkpt>
      <trkpt lat="47.10164" lon="-1.23984">
        <ele>54</ele>
        <time>2023-11-12T18:24:17Z</time>
      </trkpt>
      <trkpt lat="47.10175" lon="-1.24006">
        <ele>54</ele>
        <time>2023-11-12T18:24:42Z</time>
      </trkpt>
      <trkpt lat="47.10224" lon="-1.23919">
        <ele>55</ele>
        <time>2023-11-12T18:26:24Z</time>
      </trkpt>
      <trkpt lat="47.10242" lon="-1.23873">
        <ele>56</ele>
        <time>2023-11-12T18:27:12Z</time>
      </trkpt>
      <trkpt lat="47.10299" lon="-1.2376">
        <ele>58</ele>
        <time>2023-11-12T18:29:20Z</time>
      </trkpt>
      <trkpt lat="47.10319" lon="-1.23713">
        <ele>58</ele>
        <time>2023-11-12T18:30:10Z</time>
      </trkpt>
      <trkpt lat="47.10348" lon="-1.23679">
        <ele>59</ele>
        <time>2023-11-12T18:31:00Z</time>
      </trkpt>
      <trkpt lat="47.10365" lon="-1.23664">
        <ele>59</ele>
        <time>2023-11-12T18:31:26Z</time>
      </trkpt>
      <trkpt lat="47.10396" lon="-1.2363">
        <ele>60</ele>
        <time>2023-11-12T18:32:18Z</time>
      </trkpt>
      <trkpt lat="47.10471" lon="-1.2354">
        <ele>62</ele>
        <time>2023-11-12T18:34:27Z</time>
      </trkpt>
      <trkpt lat="47.10502" lon="-1.23508">
        <ele>63</ele>
        <time>2023-11-12T18:35:18Z</time>
      </trkpt>
      <trkpt lat="47.10506" lon="-1.23482">
        <ele>63</ele>
        <time>2023-11-12T18:35:42Z</time>
      </trkpt>
      <trkpt lat="47.10487" lon="-1.23474">
        <ele>63</ele>
        <time>2023-11-12T18:36:08Z</time>
      </trkpt>
      <trkpt lat="47.10469" lon="-1.23463">
        <ele>62</ele>
        <time>2023-11-12T18:36:34Z</time>
      </trkpt>
      <trkpt lat="47.10382" lon="-1.23399">
        <ele>61</ele>
        <time>2023-11-12T18:38:44Z</time>
      </trkpt>
      <trkpt lat="47.10364" lon="-1.23391">
        <ele>60</ele>
        <time>2023-11-12T18:39:09Z</time>
      </trkpt>
      <trkpt lat="47.1033" lon="-1.23366">
        <ele>59</ele>
        <time>2023-11-12T18:40:00Z</time>
      </trkpt>
      <trkpt lat="47.10296" lon="-1.23347">
        <ele>57</ele>
        <time>2023-11-12T18:40:49Z</time>
      </trkpt>
      <trkpt lat="47.10277" lon="-1.2334">
        <ele>57</ele>
        <time>2023-11-12T18:41:15Z</time>
      </trkpt>
      <trkpt lat="47.10257" lon="-1.23346">
        <ele>56</ele>
        <time>2023-11-12T18:41:42Z</time>
      </trkpt>
      <trkpt lat="47.10243" lon="-1.23366">
        <ele>56</ele>
        <time>2023-11-12T18:42:08Z</time>
      </trkpt>
      <trkpt lat="47.10233" lon="-1.23389">
        <ele>57</ele>
        <time>2023-11-12T18:42:33Z</time>
      </trkpt>
      <trkpt lat="47.10213" lon="-1.23385">
        <ele>55</ele>
        <time>2023-11-12T18:43:00Z</time>
      </trkpt>
      <trkpt lat="47.10144" lon="-1.23337">
        <ele>48</ele>
        <time>2023-11-12T18:44:42Z</time>
      </trkpt>
      <trkpt lat="47.10109" lon="-1.23319">
        <ele>44</ele>
        <time>2023-11-12T18:45:31Z</time>
      </trkpt>
      <trkpt lat="47.10052" lon="-1.23302">
        <ele>38</ele>
        <time>2023-11-12T18:46:49Z</time>
      </trkpt>
      <trkpt lat="47.10051" lon="-1.23274">
        <ele>36</ele>
        <time>2023-11-12T18:47:14Z</time>
      </trkpt>
      <trkpt lat="47.10057" lon="-1.23248">
        <ele>34</ele>
        <time>2023-11-12T18:47:39Z</time>
      </trkpt>
      <trkpt lat="47.10064" lon="-1.23191">
        <ele>33</ele>
        <time>2023-11-12T18:48:32Z</time>
      </trkpt>
      <trkpt lat="47.10063" lon="-1.23161">
        <ele>31</ele>
        <time>2023-11-12T18:48:59Z</time>
      </trkpt>
      <trkpt lat="47.1007" lon="-1.23105">
        <ele>31</ele>
        <time>2023-11-12T18:49:51Z</time>
      </trkpt>
      <trkpt lat="47.10069" lon="-1.23077">
        <ele>30</ele>
        <time>2023-11-12T18:50:16Z</time>
      </trkpt>
      <trkpt lat="47.10078" lon="-1.22992">
        <ele>30</ele>
        <time>2023-11-12T18:51:34Z</time>
      </trkpt>
      <trkpt lat="47.10092" lon="-1.22908">
        <ele>31</ele>
        <time>2023-11-12T18:52:53Z</time>
      </trkpt>
      <trkpt lat="47.10094" lon="-1.22882">
        <ele>31</ele>
        <time>2023-11-12T18:53:17Z</time>
      </trkpt>
      <trkpt lat="47.1008" lon="-1.22802">
        <ele>29</ele>
        <time>2023-11-12T18:54:32Z</time>
      </trkpt>
      <trkpt lat="47.10075" lon="-1.22747">
        <ele>30</ele>
        <time>2023-11-12T18:55:22Z</time>
      </trkpt>
      <trkpt lat="47.10075" lon="-1.22719">
        <ele>29</ele>
        <time>2023-11-12T18:55:48Z</time>
      </trkpt>
      <trkpt lat="47.10085" lon="-1.22665">
        <ele>28</ele>
        <time>2023-11-12T18:56:38Z</time>
      </trkpt>
      <trkpt lat="47.10085" lon="-1.22583">
        <ele>28</ele>
        <time>2023-11-12T18:57:53Z</time>
      </trkpt>
      <trkpt lat="47.1007" lon="-1.22501">
        <ele>27</ele>
        <time>2023-11-12T18:59:10Z</time>
      </trkpt>
      <trkpt lat="47.10065" lon="-1.22445">
        <ele>28</ele>
        <time>2023-11-12T19:00:01Z</time>
      </trkpt>
      <trkpt lat="47.10066" lon="-1.22418">
        <ele>28</ele>
        <time>2023-11-12T19:00:26Z</time>
      </trkpt>
      <trkpt lat="47.10078" lon="-1.22365">
        <ele>31</ele>
        <time>2023-11-12T19:01:17Z</time>
      </trkpt>
      <trkpt lat="47.10081" lon="-1.22336">
        <ele>32</ele>
        <time>2023-11-12T19:01:43Z</time>
      </trkpt>
      <trkpt lat="47.10072" lon="-1.22313">
        <ele>32</ele>
        <time>2023-11-12T19:02:07Z</time>
      </trkpt>
      <trkpt lat="47.10039" lon="-1.22281">
        <ele>30</ele>
        <time>2023-11-12T19:03:00Z</time>
      </trkpt>
      <trkpt lat="47.1003" lon="-1.22257">
        <ele>29</ele>
        <time>2023-11-12T19:03:25Z</time>
      </trkpt>
      <trkpt lat="47.10016" lon="-1.2215">
        <ele>29</ele>
        <time>2023-11-12T19:05:04Z</time>
      </trkpt>
      <trkpt lat="47.10017" lon="-1.2209">
        <ele>29</ele>
        <time>2023-11-12T19:05:59Z</time>
      </trkpt>
      <trkpt lat="47.10024" lon="-1.22064">
        <ele>30</ele>
        <time>2023-11-12T19:06:24Z</time>
      </trkpt>
      <trkpt lat="47.09996" lon="-1.22028">
        <ele>29</ele>
        <time>2023-11-12T19:07:14Z</time>
      </trkpt>
      <trkpt lat="47.09992" lon="-1.22001">
        <ele>29</ele>
        <time>2023-11-12T19:07:39Z</time>
      </trkpt>
      <trkpt lat="47.09981" lon="-1.21976">
        <ele>29</ele>
        <time>2023-11-12T19:08:06Z</time>
      </trkpt>
      <trkpt lat="47.09968" lon="-1.21861">
        <ele>31</ele>
        <time>2023-11-12T19:09:52Z</time>
      </trkpt>
      <trkpt lat="47.09967" lon="-1.2183">
        <ele>33</ele>
        <time>2023-11-12T19:10:20Z</time>
      </trkpt>
      <trkpt lat="47.09955" lon="-1.21779">
        <ele>32</ele>
        <time>2023-11-12T19:11:09Z</time>
      </trkpt>
      <trkpt lat="47.09945" lon="-1.21692">
        <ele>33</ele>
        <time>2023-11-12T19:12:29Z</time>
      </trkpt>
      <trkpt lat="47.0994" lon="-1.21666">
        <ele>32</ele>
        <time>2023-11-12T19:12:54Z</time>
      </trkpt>
      <trkpt lat="47.09914" lon="-1.21625">
        <ele>28</ele>
        <time>2023-11-12T19:13:44Z</time>
      </trkpt>
      <trkpt lat="47.09911" lon="-1.21599">
        <ele>28</ele>
        <time>2023-11-12T19:14:08Z</time>
      </trkpt>
      <trkpt lat="47.09916" lon="-1.21572">
        <ele>28</ele>
        <time>2023-11-12T19:14:34Z</time>
      </trkpt>
      <trkpt lat="47.09924" lon="-1.21546">
        <ele>29</ele>
        <time>2023-11-12T19:15:00Z</time>
      </trkpt>
      <trkpt lat="47.09921" lon="-1.21518">
        <ele>29</ele>
        <time>2023-11-12T19:15:26Z</time>
      </trkpt>
      <trkpt lat="47.09909" lon="-1.21497">
        <ele>29</ele>
        <time>2023-11-12T19:15:50Z</time>
      </trkpt>
      <trkpt lat="47.09906" lon="-1.21469">
        <ele>30</ele>
        <time>2023-11-12T19:16:16Z</time>
      </trkpt>
      <trkpt lat="47.09893" lon="-1.21415">
        <ele>32</ele>
        <time>2023-11-12T19:17:08Z</time>
      </trkpt>
      <trkpt lat="47.09889" lon="-1.21388">
        <ele>32</ele>
        <time>2023-11-12T19:17:33Z</time>
      </trkpt>
      <trkpt lat="47.0986" lon="-1.21312">
        <ele>30</ele>
        <time>2023-11-12T19:18:52Z</time>
      </trkpt>
      <trkpt lat="47.09855" lon="-1.21286">
        <ele>30</ele>
        <time>2023-11-12T19:19:17Z</time>
      </trkpt>
      <trkpt lat="47.0983" lon="-1.21244">
        <ele>29</ele>
        <time>2023-11-12T19:20:08Z</time>
      </trkpt>
      <trkpt lat="47.09815" lon="-1.21227">
        <ele>30</ele>
        <time>2023-11-12T19:20:33Z</time>
      </trkpt>
      <trkpt lat="47.09807" lon="-1.212">
        <ele>30</ele>
        <time>2023-11-12T19:21:00Z</time>
      </trkpt>
      <trkpt lat="47.09797" lon="-1.21147">
        <ele>30</ele>
        <time>2023-11-12T19:21:50Z</time>
      </trkpt>
      <trkpt lat="47.09795" lon="-1.21092">
        <ele>30</ele>
        <time>2023-11-12T19:22:40Z</time>
      </trkpt>
      <trkpt lat="47.09779" lon="-1.21081">
        <ele>29</ele>
        <time>2023-11-12T19:23:03Z</time>
      </trkpt>
      <trkpt lat="47.09798" lon="-1.21078">
        <ele>30</ele>
        <time>2023-11-12T19:23:29Z</time>
      </trkpt>
      <trkpt lat="47.09785" lon="-1.2106">
        <ele>29</ele>
        <time>2023-11-12T19:23:53Z</time>
      </trkpt>
      <trkpt lat="47.09779" lon="-1.21034">
        <ele>29</ele>
        <time>2023-11-12T19:24:18Z</time>
      </trkpt>
      <trkpt lat="47.09774" lon="-1.20976">
        <ele>29</ele>
        <time>2023-11-12T19:25:11Z</time>
      </trkpt>
      <trkpt lat="47.09763" lon="-1.2092">
        <ele>29</ele>
        <time>2023-11-12T19:26:04Z</time>
      </trkpt>
      <trkpt lat="47.0975" lon="-1.20901">
        <ele>28</ele>
        <time>2023-11-12T19:26:28Z</time>
      </trkpt>
      <trkpt lat="47.09741" lon="-1.20874">
        <ele>29</ele>
        <time>2023-11-12T19:26:55Z</time>
      </trkpt>
      <trkpt lat="47.09729" lon="-1.20731">
        <ele>31</ele>
        <time>2023-11-12T19:29:06Z</time>
      </trkpt>
      <trkpt lat="47.09739" lon="-1.20648">
        <ele>32</ele>
        <time>2023-11-12T19:30:23Z</time>
      </trkpt>
      <trkpt lat="47.09762" lon="-1.2051">
        <ele>34</ele>
        <time>2023-11-12T19:32:32Z</time>
      </trkpt>
      <trkpt lat="47.09806" lon="-1.2035">
        <ele>35</ele>
        <time>2023-11-12T19:35:09Z</time>
      </trkpt>
      <trkpt lat="47.09814" lon="-1.20296">
        <ele>36</ele>
        <time>2023-11-12T19:35:59Z</time>
      </trkpt>
      <trkpt lat="47.09822" lon="-1.20267">
        <ele>37</ele>
        <time>2023-11-12T19:36:27Z</time>
      </trkpt>
      <trkpt lat="47.09821" lon="-1.2024">
        <ele>38</ele>
        <time>2023-11-12T19:36:52Z</time>
      </trkpt>
      <trkpt lat="47.09817" lon="-1.20211">
        <ele>37</ele>
        <time>2023-11-12T19:37:19Z</time>
      </trkpt>
      <trkpt lat="47.09803" lon="-1.20191">
        <ele>36</ele>
        <time>2023-11-12T19:37:45Z</time>
      </trkpt>
      <trkpt lat="47.098" lon="-1.20136">
        <ele>36</ele>
        <time>2023-11-12T19:38:35Z</time>
      </trkpt>
      <trkpt lat="47.09787" lon="-1.20116">
        <ele>35</ele>
        <time>2023-11-12T19:39:00Z</time>
      </trkpt>
      <trkpt lat="47.09778" lon="-1.20092">
        <ele>34</ele>
        <time>2023-11-12T19:39:25Z</time>
      </trkpt>
      <trkpt lat="47.09733" lon="-1.19906">
        <ele>35</ele>
        <time>2023-11-12T19:42:24Z</time>
      </trkpt>
      <trkpt lat="47.09725" lon="-1.19881">
        <ele>35</ele>
        <time>2023-11-12T19:42:49Z</time>
      </trkpt>
      <trkpt lat="47.09705" lon="-1.19835">
        <ele>34</ele>
        <time>2023-11-12T19:43:39Z</time>
      </trkpt>
      <trkpt lat="47.0969" lon="-1.19782">
        <ele>33</ele>
        <time>2023-11-12T19:44:31Z</time>
      </trkpt>
      <trkpt lat="47.09678" lon="-1.1976">
        <ele>32</ele>
        <time>2023-11-12T19:44:57Z</time>
      </trkpt>
      <trkpt lat="47.0967" lon="-1.19704">
        <ele>33</ele>
        <time>2023-11-12T19:45:49Z</time>
      </trkpt>
      <trkpt lat="47.09662" lon="-1.19678">
        <ele>33</ele>
        <time>2023-11-12T19:46:15Z</time>
      </trkpt>
      <trkpt lat="47.09632" lon="-1.19543">
        <ele>35</ele>
        <time>2023-11-12T19:48:24Z</time>
      </trkpt>
      <trkpt lat="47.09628" lon="-1.19489">
        <ele>34</ele>
        <time>2023-11-12T19:49:13Z</time>
      </trkpt>
      <trkpt lat="47.0963" lon="-1.1946">
        <ele>34</ele>
        <time>2023-11-12T19:49:39Z</time>
      </trkpt>
      <trkpt lat="47.09635" lon="-1.19433">
        <ele>34</ele>
        <time>2023-11-12T19:50:05Z</time>
      </trkpt>
      <trkpt lat="47.09641" lon="-1.19406">
        <ele>35</ele>
        <time>2023-11-12T19:50:31Z</time>
      </trkpt>
      <trkpt lat="47.09665" lon="-1.19365">
        <ele>37</ele>
        <time>2023-11-12T19:51:20Z</time>
      </trkpt>
      <trkpt lat="47.09646" lon="-1.19356">
        <ele>35</ele>
        <time>2023-11-12T19:51:46Z</time>
      </trkpt>
      <trkpt lat="47.09626" lon="-1.19361">
        <ele>34</ele>
        <time>2023-11-12T19:52:14Z</time>
      </trkpt>
      <trkpt lat="47.09607" lon="-1.19354">
        <ele>32</ele>
        <time>2023-11-12T19:52:40Z</time>
      </trkpt>
      <trkpt lat="47.09599" lon="-1.19327">
        <ele>31</ele>
        <time>2023-11-12T19:53:06Z</time>
      </trkpt>
      <trkpt lat="47.09596" lon="-1.19298">
        <ele>31</ele>
        <time>2023-11-12T19:53:33Z</time>
      </trkpt>
      <trkpt lat="47.09598" lon="-1.19268">
        <ele>32</ele>
        <time>2023-11-12T19:54:00Z</time>
      </trkpt>
      <trkpt lat="47.09603" lon="-1.19242">
        <ele>33</ele>
        <time>2023-11-12T19:54:25Z</time>
      </trkpt>
      <trkpt lat="47.096" lon="-1.19216">
        <ele>32</ele>
        <time>2023-11-12T19:54:49Z</time>
      </trkpt>
      <trkpt lat="47.09591" lon="-1.19189">
        <ele>31</ele>
        <time>2023-11-12T19:55:16Z</time>
      </trkpt>
      <trkpt lat="47.0959" lon="-1.1913">
        <ele>31</ele>
        <time>2023-11-12T19:56:10Z</time>
      </trkpt>
      <trkpt lat="47.09582" lon="-1.1902">
        <ele>31</ele>
        <time>2023-11-12T19:57:50Z</time>
      </trkpt>
      <trkpt lat="47.09583" lon="-1.1899">
        <ele>31</ele>
        <time>2023-11-12T19:58:18Z</time>
      </trkpt>
      <trkpt lat="47.09605" lon="-1.18914">
        <ele>35</ele>
        <time>2023-11-12T19:59:33Z</time>
      </trkpt>
      <trkpt lat="47.09612" lon="-1.18857">
        <ele>37</ele>
        <time>2023-11-12T20:00:25Z</time>
      </trkpt>
      <trkpt lat="47.09626" lon="-1.18801">
        <ele>40</ele>
        <time>2023-11-12T20:01:19Z</time>
      </trkpt>
      <trkpt lat="47.09631" lon="-1.18684">
        <ele>42</ele>
        <time>2023-11-12T20:03:06Z</time>
      </trkpt>
      <trkpt lat="47.09636" lon="-1.18658">
        <ele>43</ele>
        <time>2023-11-12T20:03:31Z</time>
      </trkpt>
      <trkpt lat="47.09655" lon="-1.1866">
        <ele>47</ele>
        <time>2023-11-12T20:03:56Z</time>
      </trkpt>
      <trkpt lat="47.09692" lon="-1.18657">
        <ele>52</ele>
        <time>2023-11-12T20:04:45Z</time>
      </trkpt>
      <trkpt lat="47.0971" lon="-1.18647">
        <ele>53</ele>
        <time>2023-11-12T20:05:11Z</time>
      </trkpt>
      <trkpt lat="47.09723" lon="-1.18627">
        <ele>55</ele>
        <time>2023-11-12T20:05:36Z</time>
      </trkpt>
      <trkpt lat="47.0974" lon="-1.18638">
        <ele>57</ele>
        <time>2023-11-12T20:06:01Z</time>
      </trkpt>
      <trkpt lat="47.09757" lon="-1.18645">
        <ele>59</ele>
        <time>2023-11-12T20:06:25Z</time>
      </trkpt>
      <trkpt lat="47.09871" lon="-1.18634">
        <ele>70</ele>
        <time>2023-11-12T20:08:57Z</time>
      </trkpt>
      <trkpt lat="47.09888" lon="-1.18646">
        <ele>72</ele>
        <time>2023-11-12T20:09:22Z</time>
      </trkpt>
      <trkpt lat="47.09898" lon="-1.1867">
        <ele>72</ele>
        <time>2023-11-12T20:09:48Z</time>
      </trkpt>
      <trkpt lat="47.0991" lon="-1.1869">
        <ele>73</ele>
        <time>2023-11-12T20:10:12Z</time>
      </trkpt>
      <trkpt lat="47.0993" lon="-1.18688">
        <ele>74</ele>
        <time>2023-11-12T20:10:39Z</time>
      </trkpt>
      <trkpt lat="47.09946" lon="-1.18674">
        <ele>74</ele>
        <time>2023-11-12T20:11:04Z</time>
      </trkpt>
      <trkpt lat="47.09964" lon="-1.18669">
        <ele>75</ele>
        <time>2023-11-12T20:11:28Z</time>
      </trkpt>
      <trkpt lat="47.09974" lon="-1.18646">
        <ele>74</ele>
        <time>2023-11-12T20:11:53Z</time>
      </trkpt>
      <trkpt lat="47.09978" lon="-1.18619">
        <ele>74</ele>
        <time>2023-11-12T20:12:18Z</time>
      </trkpt>
      <trkpt lat="47.09981" lon="-1.18563">
        <ele>73</ele>
        <time>2023-11-12T20:13:09Z</time>
      </trkpt>
      <trkpt lat="47.09977" lon="-1.18536">
        <ele>72</ele>
        <time>2023-11-12T20:13:34Z</time>
      </trkpt>
      <trkpt lat="47.09981" lon="-1.18479">
        <ele>71</ele>
        <time>2023-11-12T20:14:26Z</time>
      </trkpt>
      <trkpt lat="47.09994" lon="-1.18457">
        <ele>70</ele>
        <time>2023-11-12T20:14:53Z</time>
      </trkpt>
      <trkpt lat="47.10024" lon="-1.18423">
        <ele>67</ele>
        <time>2023-11-12T20:15:43Z</time>
      </trkpt>
      <trkpt lat="47.10037" lon="-1.18404">
        <ele>66</ele>
        <time>2023-11-12T20:16:08Z</time>
      </trkpt>
      <trkpt lat="47.101" lon="-1.18338">
        <ele>61</ele>
        <time>2023-11-12T20:17:51Z</time>
      </trkpt>
      <trkpt lat="47.10111" lon="-1.18315">
        <ele>61</ele>
        <time>2023-11-12T20:18:16Z</time>
      </trkpt>
      <trkpt lat="47.10124" lon="-1.18297">
        <ele>61</ele>
        <time>2023-11-12T20:18:40Z</time>
      </trkpt>
      <trkpt lat="47.10141" lon="-1.18284">
        <ele>61</ele>
        <time>2023-11-12T20:19:06Z</time>
      </trkpt>
      <trkpt lat="47.10162" lon="-1.18237">
        <ele>62</ele>
        <time>2023-11-12T20:19:57Z</time>
      </trkpt>
      <trkpt lat="47.10185" lon="-1.18163">
        <ele>65</ele>
        <time>2023-11-12T20:21:11Z</time>
      </trkpt>
      <trkpt lat="47.10207" lon="-1.18082">
        <ele>70</ele>
        <time>2023-11-12T20:22:30Z</time>
      </trkpt>
      <trkpt lat="47.10223" lon="-1.18">
        <ele>72</ele>
        <time>2023-11-12T20:23:47Z</time>
      </trkpt>
      <trkpt lat="47.10237" lon="-1.17983">
        <ele>73</ele>
        <time>2023-11-12T20:24:12Z</time>
      </trkpt>
      <trkpt lat="47.1027" lon="-1.17953">
        <ele>74</ele>
        <time>2023-11-12T20:25:03Z</time>
      </trkpt>
      <trkpt lat="47.10348" lon="-1.17872">
        <ele>77</ele>
        <time>2023-11-12T20:27:11Z</time>
      </trkpt>
      <trkpt lat="47.10381" lon="-1.17841">
        <ele>77</ele>
        <time>2023-11-12T20:28:03Z</time>
      </trkpt>
      <trkpt lat="47.10396" lon="-1.17823">
        <ele>78</ele>
        <time>2023-11-12T20:28:29Z</time>
      </trkpt>
      <trkpt lat="47.10412" lon="-1.1781">
        <ele>78</ele>
        <time>2023-11-12T20:28:53Z</time>
      </trkpt>
      <trkpt lat="47.10487" lon="-1.17726">
        <ele>79</ele>
        <time>2023-11-12T20:30:59Z</time>
      </trkpt>
      <trkpt lat="47.10517" lon="-1.17687">
        <ele>80</ele>
        <time>2023-11-12T20:31:53Z</time>
      </trkpt>
      <trkpt lat="47.10596" lon="-1.1756">
        <ele>80</ele>
        <time>2023-11-12T20:34:29Z</time>
      </trkpt>
      <trkpt lat="47.10624" lon="-1.17518">
        <ele>81</ele>
        <time>2023-11-12T20:35:22Z</time>
      </trkpt>
      <trkpt lat="47.10639" lon="-1.175">
        <ele>82</ele>
        <time>2023-11-12T20:35:48Z</time>
      </trkpt>
      <trkpt lat="47.10651" lon="-1.17479">
        <ele>82</ele>
        <time>2023-11-12T20:36:13Z</time>
      </trkpt>
      <trkpt lat="47.10725" lon="-1.17387">
        <ele>82</ele>
        <time>2023-11-12T20:38:23Z</time>
      </trkpt>
      <trkpt lat="47.1078" lon="-1.17305">
        <ele>83</ele>
        <time>2023-11-12T20:40:07Z</time>
      </trkpt>
      <trkpt lat="47.10809" lon="-1.17269">
        <ele>85</ele>
        <time>2023-11-12T20:40:58Z</time>
      </trkpt>
      <trkpt lat="47.10857" lon="-1.17218">
        <ele>87</ele>
        <time>2023-11-12T20:42:17Z</time>
      </trkpt>
      <trkpt lat="47.10956" lon="-1.17081">
        <ele>90</ele>
        <time>2023-11-12T20:45:18Z</time>
      </trkpt>
      <trkpt lat="47.10992" lon="-1.17067">
        <ele>89</ele>
        <time>2023-11-12T20:46:08Z</time>
      </trkpt>
      <trkpt lat="47.1103" lon="-1.17047">
        <ele>89</ele>
        <time>2023-11-12T20:47:02Z</time>
      </trkpt>
      <trkpt lat="47.11046" lon="-1.17035">
        <ele>89</ele>
        <time>2023-11-12T20:47:26Z</time>
      </trkpt>
      <trkpt lat="47.11066" lon="-1.17032">
        <ele>89</ele>
        <time>2023-11-12T20:47:53Z</time>
      </trkpt>
      <trkpt lat="47.11141" lon="-1.16992">
        <ele>90</ele>
        <time>2023-11-12T20:49:39Z</time>
      </trkpt>
      <trkpt lat="47.11167" lon="-1.17032">
        <ele>90</ele>
        <time>2023-11-12T20:50:29Z</time>
      </trkpt>
      <trkpt lat="47.11184" lon="-1.17081">
        <ele>90</ele>
        <time>2023-11-12T20:51:19Z</time>
      </trkpt>
      <trkpt lat="47.11207" lon="-1.17126">
        <ele>90</ele>
        <time>2023-11-12T20:52:10Z</time>
      </trkpt>
      <trkpt lat="47.11291" lon="-1.17317">
        <ele>90</ele>
        <time>2023-11-12T20:55:37Z</time>
      </trkpt>
      <trkpt lat="47.11325" lon="-1.17384">
        <ele>88</ele>
        <time>2023-11-12T20:56:53Z</time>
      </trkpt>
      <trkpt lat="47.11335" lon="-1.1741">
        <ele>88</ele>
        <time>2023-11-12T20:57:20Z</time>
      </trkpt>
      <trkpt lat="47.11348" lon="-1.1743">
        <ele>88</ele>
        <time>2023-11-12T20:57:45Z</time>
      </trkpt>
      <trkpt lat="47.11356" lon="-1.17455">
        <ele>89</ele>
        <time>2023-11-12T20:58:10Z</time>
      </trkpt>
      <trkpt lat="47.11398" lon="-1.1751">
        <ele>90</ele>
        <time>2023-11-12T20:59:25Z</time>
      </trkpt>
      <trkpt lat="47.11488" lon="-1.1762">
        <ele>91</ele>
        <time>2023-11-12T21:02:02Z</time>
      </trkpt>
      <trkpt lat="47.11557" lon="-1.17716">
        <ele>88</ele>
        <time>2023-11-12T21:04:08Z</time>
      </trkpt>
      <trkpt lat="47.11573" lon="-1.17732">
        <ele>88</ele>
        <time>2023-11-12T21:04:34Z</time>
      </trkpt>
      <trkpt lat="47.11615" lon="-1.17795">
        <ele>88</ele>
        <time>2023-11-12T21:05:54Z</time>
      </trkpt>
      <trkpt lat="47.11689" lon="-1.17888">
        <ele>88</ele>
        <time>2023-11-12T21:08:04Z</time>
      </trkpt>
      <trkpt lat="47.11707" lon="-1.17891">
        <ele>88</ele>
        <time>2023-11-12T21:08:28Z</time>
      </trkpt>
      <trkpt lat="47.11727" lon="-1.17884">
        <ele>88</ele>
        <time>2023-11-12T21:08:56Z</time>
      </trkpt>
      <trkpt lat="47.11745" lon="-1.17874">
        <ele>88</ele>
        <time>2023-11-12T21:09:21Z</time>
      </trkpt>
      <trkpt lat="47.11882" lon="-1.17768">
        <ele>88</ele>
        <time>2023-11-12T21:12:48Z</time>
      </trkpt>
      <trkpt lat="47.119" lon="-1.1776">
        <ele>87</ele>
        <time>2023-11-12T21:13:13Z</time>
      </trkpt>
      <trkpt lat="47.11919" lon="-1.17763">
        <ele>87</ele>
        <time>2023-11-12T21:13:39Z</time>
      </trkpt>
      <trkpt lat="47.11931" lon="-1.17786">
        <ele>88</ele>
        <time>2023-11-12T21:14:05Z</time>
      </trkpt>
      <trkpt lat="47.11958" lon="-1.17863">
        <ele>88</ele>
        <time>2023-11-12T21:15:24Z</time>
      </trkpt>
      <trkpt lat="47.11985" lon="-1.18035">
        <ele>90</ele>
        <time>2023-11-12T21:18:04Z</time>
      </trkpt>
      <trkpt lat="47.11993" lon="-1.18118">
        <ele>91</ele>
        <time>2023-11-12T21:19:20Z</time>
      </trkpt>
      <trkpt lat="47.11992" lon="-1.18176">
        <ele>90</ele>
        <time>2023-11-12T21:20:13Z</time>
      </trkpt>
      <trkpt lat="47.11996" lon="-1.18229">
        <ele>90</ele>
        <time>2023-11-12T21:21:01Z</time>
      </trkpt>
      <trkpt lat="47.11997" lon="-1.18285">
        <ele>90</ele>
        <time>2023-11-12T21:21:52Z</time>
      </trkpt>
      <trkpt lat="47.12001" lon="-1.18311">
        <ele>90</ele>
        <time>2023-11-12T21:22:16Z</time>
      </trkpt>
      <trkpt lat="47.12011" lon="-1.18337">
        <ele>90</ele>
        <time>2023-11-12T21:22:43Z</time>
      </trkpt>
      <trkpt lat="47.12026" lon="-1.18353">
        <ele>90</ele>
        <time>2023-11-12T21:23:08Z</time>
      </trkpt>
      <trkpt lat="47.12102" lon="-1.1839">
        <ele>88</ele>
        <time>2023-11-12T21:24:55Z</time>
      </trkpt>
      <trkpt lat="47.12101" lon="-1.18419">
        <ele>89</ele>
        <time>2023-11-12T21:25:21Z</time>
      </trkpt>
      <trkpt lat="47.12094" lon="-1.18446">
        <ele>88</ele>
        <time>2023-11-12T21:25:48Z</time>
      </trkpt>
      <trkpt lat="47.12084" lon="-1.18469">
        <ele>88</ele>
        <time>2023-11-12T21:26:12Z</time>
      </trkpt>
      <trkpt lat="47.12085" lon="-1.18499">
        <ele>88</ele>
        <time>2023-11-12T21:26:40Z</time>
      </trkpt>
      <trkpt lat="47.12079" lon="-1.18556">
        <ele>88</ele>
        <time>2023-11-12T21:27:32Z</time>
      </trkpt>
      <trkpt lat="47.12082" lon="-1.18615">
        <ele>88</ele>
        <time>2023-11-12T21:28:26Z</time>
      </trkpt>
      <trkpt lat="47.12077" lon="-1.18642">
        <ele>87</ele>
        <time>2023-11-12T21:28:51Z</time>
      </trkpt>
      <trkpt lat="47.12059" lon="-1.18643">
        <ele>88</ele>
        <time>2023-11-12T21:29:15Z</time>
      </trkpt>
      <trkpt lat="47.11963" lon="-1.18611">
        <ele>89</ele>
        <time>2023-11-12T21:31:26Z</time>
      </trkpt>
      <trkpt lat="47.11924" lon="-1.18614">
        <ele>90</ele>
        <time>2023-11-12T21:32:19Z</time>
      </trkpt>
      <trkpt lat="47.11905" lon="-1.18609">
        <ele>90</ele>
        <time>2023-11-12T21:32:44Z</time>
      </trkpt>
      <trkpt lat="47.11885" lon="-1.18609">
        <ele>90</ele>
        <time>2023-11-12T21:33:11Z</time>
      </trkpt>
      <trkpt lat="47.11847" lon="-1.18602">
        <ele>91</ele>
        <time>2023-11-12T21:34:02Z</time>
      </trkpt>
      <trkpt lat="47.11807" lon="-1.1859">
        <ele>90</ele>
        <time>2023-11-12T21:34:57Z</time>
      </trkpt>
      <trkpt lat="47.11731" lon="-1.18579">
        <ele>88</ele>
        <time>2023-11-12T21:36:39Z</time>
      </trkpt>
      <trkpt lat="47.11692" lon="-1.1857">
        <ele>89</ele>
        <time>2023-11-12T21:37:31Z</time>
      </trkpt>
      <trkpt lat="47.11613" lon="-1.18543">
        <ele>87</ele>
        <time>2023-11-12T21:39:19Z</time>
      </trkpt>
      <trkpt lat="47.11555" lon="-1.18526">
        <ele>86</ele>
        <time>2023-11-12T21:40:38Z</time>
      </trkpt>
      <trkpt lat="47.11517" lon="-1.1851">
        <ele>86</ele>
        <time>2023-11-12T21:41:31Z</time>
      </trkpt>
      <trkpt lat="47.11499" lon="-1.18505">
        <ele>86</ele>
        <time>2023-11-12T21:41:56Z</time>
      </trkpt>
      <trkpt lat="47.11443" lon="-1.18529">
        <ele>85</ele>
        <time>2023-11-12T21:43:13Z</time>
      </trkpt>
      <trkpt lat="47.11352" lon="-1.18577">
        <ele>82</ele>
        <time>2023-11-12T21:45:22Z</time>
      </trkpt>
      <trkpt lat="47.11333" lon="-1.18574">
        <ele>81</ele>
        <time>2023-11-12T21:45:48Z</time>
      </trkpt>
      <trkpt lat="47.11283" lon="-1.18485">
        <ele>82</ele>
        <time>2023-11-12T21:47:33Z</time>
      </trkpt>
      <trkpt lat="47.11269" lon="-1.18466">
        <ele>82</ele>
        <time>2023-11-12T21:47:58Z</time>
      </trkpt>
      <trkpt lat="47.11256" lon="-1.18443">
        <ele>83</ele>
        <time>2023-11-12T21:48:25Z</time>
      </trkpt>
      <trkpt lat="47.11238" lon="-1.18433">
        <ele>83</ele>
        <time>2023-11-12T21:48:51Z</time>
      </trkpt>
      <trkpt lat="47.11165" lon="-1.18458">
        <ele>84</ele>
        <time>2023-11-12T21:50:31Z</time>
      </trkpt>
      <trkpt lat="47.11147" lon="-1.18461">
        <ele>84</ele>
        <time>2023-11-12T21:50:55Z</time>
      </trkpt>
      <trkpt lat="47.1111" lon="-1.18476">
        <ele>85</ele>
        <time>2023-11-12T21:51:46Z</time>
      </trkpt>
      <trkpt lat="47.11093" lon="-1.18485">
        <ele>85</ele>
        <time>2023-11-12T21:52:11Z</time>
      </trkpt>
      <trkpt lat="47.11079" lon="-1.18504">
        <ele>85</ele>
        <time>2023-11-12T21:52:36Z</time>
      </trkpt>
      <trkpt lat="47.11037" lon="-1.18601">
        <ele>84</ele>
        <time>2023-11-12T21:54:20Z</time>
      </trkpt>
      <trkpt lat="47.11006" lon="-1.18637">
        <ele>84</ele>
        <time>2023-11-12T21:55:13Z</time>
      </trkpt>
      <trkpt lat="47.10988" lon="-1.18653">
        <ele>84</ele>
        <time>2023-11-12T21:55:41Z</time>
      </trkpt>
      <trkpt lat="47.10918" lon="-1.18703">
        <ele>84</ele>
        <time>2023-11-12T21:57:25Z</time>
      </trkpt>
      <trkpt lat="47.10903" lon="-1.18717">
        <ele>83</ele>
        <time>2023-11-12T21:57:49Z</time>
      </trkpt>
      <trkpt lat="47.10816" lon="-1.18783">
        <ele>83</ele>
        <time>2023-11-12T21:59:59Z</time>
      </trkpt>
      <trkpt lat="47.10766" lon="-1.18825">
        <ele>83</ele>
        <time>2023-11-12T22:01:16Z</time>
      </trkpt>
      <trkpt lat="47.10696" lon="-1.18867">
        <ele>82</ele>
        <time>2023-11-12T22:02:57Z</time>
      </trkpt>
      <trkpt lat="47.1068" lon="-1.1888">
        <ele>83</ele>
        <time>2023-11-12T22:03:22Z</time>
      </trkpt>
      <trkpt lat="47.10673" lon="-1.18905">
        <ele>83</ele>
        <time>2023-11-12T22:03:46Z</time>
      </trkpt>
      <trkpt lat="47.10683" lon="-1.18931">
        <ele>83</ele>
        <time>2023-11-12T22:04:13Z</time>
      </trkpt>
      <trkpt lat="47.10677" lon="-1.18957">
        <ele>83</ele>
        <time>2023-11-12T22:04:38Z</time>
      </trkpt>
      <trkpt lat="47.10631" lon="-1.19009">
        <ele>83</ele>
        <time>2023-11-12T22:05:56Z</time>
      </trkpt>
      <trkpt lat="47.10619" lon="-1.1903">
        <ele>83</ele>
        <time>2023-11-12T22:06:21Z</time>
      </trkpt>
      <trkpt lat="47.10557" lon="-1.19097">
        <ele>81</ele>
        <time>2023-11-12T22:08:03Z</time>
      </trkpt>
      <trkpt lat="47.10486" lon="-1.19195">
        <ele>78</ele>
        <time>2023-11-12T22:10:13Z</time>
      </trkpt>
      <trkpt lat="47.10454" lon="-1.19231">
        <ele>77</ele>
        <time>2023-11-12T22:11:07Z</time>
      </trkpt>
      <trkpt lat="47.10436" lon="-1.19244">
        <ele>76</ele>
        <time>2023-11-12T22:11:34Z</time>
      </trkpt>
      <trkpt lat="47.10403" lon="-1.19277">
        <ele>76</ele>
        <time>2023-11-12T22:12:27Z</time>
      </trkpt>
      <trkpt lat="47.10399" lon="-1.19305">
        <ele>76</ele>
        <time>2023-11-12T22:12:53Z</time>
      </trkpt>
      <trkpt lat="47.10419" lon="-1.19355">
        <ele>76</ele>
        <time>2023-11-12T22:13:46Z</time>
      </trkpt>
      <trkpt lat="47.10408" lon="-1.19377">
        <ele>76</ele>
        <time>2023-11-12T22:14:11Z</time>
      </trkpt>
      <trkpt lat="47.10392" lon="-1.19393">
        <ele>75</ele>
        <time>2023-11-12T22:14:36Z</time>
      </trkpt>
      <trkpt lat="47.10364" lon="-1.19431">
        <ele>74</ele>
        <time>2023-11-12T22:15:27Z</time>
      </trkpt>
      <trkpt lat="47.10348" lon="-1.19444">
        <ele>73</ele>
        <time>2023-11-12T22:15:52Z</time>
      </trkpt>
      <trkpt lat="47.10317" lon="-1.19477">
        <ele>73</ele>
        <time>2023-11-12T22:16:43Z</time>
      </trkpt>
      <trkpt lat="47.10258" lon="-1.19551">
        <ele>72</ele>
        <time>2023-11-12T22:18:26Z</time>
      </trkpt>
      <trkpt lat="47.10232" lon="-1.19589">
        <ele>72</ele>
        <time>2023-11-12T22:19:15Z</time>
      </trkpt>
      <trkpt lat="47.10214" lon="-1.19593">
        <ele>71</ele>
        <time>2023-11-12T22:19:40Z</time>
      </trkpt>
      <trkpt lat="47.10139" lon="-1.19462">
        <ele>69</ele>
        <time>2023-11-12T22:22:15Z</time>
      </trkpt>
      <trkpt lat="47.10108" lon="-1.19425">
        <ele>68</ele>
        <time>2023-11-12T22:23:08Z</time>
      </trkpt>
      <trkpt lat="47.10095" lon="-1.19406">
        <ele>67</ele>
        <time>2023-11-12T22:23:33Z</time>
      </trkpt>
      <trkpt lat="47.10058" lon="-1.19342">
        <ele>63</ele>
        <time>2023-11-12T22:24:49Z</time>
      </trkpt>
      <trkpt lat="47.10028" lon="-1.1927">
        <ele>62</ele>
        <time>2023-11-12T22:26:06Z</time>
      </trkpt>
      <trkpt lat="47.10016" lon="-1.19248">
        <ele>62</ele>
        <time>2023-11-12T22:26:31Z</time>
      </trkpt>
      <trkpt lat="47.10004" lon="-1.19196">
        <ele>65</ele>
        <time>2023-11-12T22:27:21Z</time>
      </trkpt>
      <trkpt lat="47.09963" lon="-1.19065">
        <ele>69</ele>
        <time>2023-11-12T22:29:32Z</time>
      </trkpt>
      <trkpt lat="47.09957" lon="-1.19039">
        <ele>69</ele>
        <time>2023-11-12T22:29:57Z</time>
      </trkpt>
      <trkpt lat="47.0995" lon="-1.18985">
        <ele>70</ele>
        <time>2023-11-12T22:30:47Z</time>
      </trkpt>
      <trkpt lat="47.09938" lon="-1.18933">
        <ele>71</ele>
        <time>2023-11-12T22:31:37Z</time>
      </trkpt>
      <trkpt lat="47.0993" lon="-1.18877">
        <ele>71</ele>
        <time>2023-11-12T22:32:29Z</time>
      </trkpt>
      <trkpt lat="47.0993" lon="-1.18821">
        <ele>72</ele>
        <time>2023-11-12T22:33:20Z</time>
      </trkpt>
      <trkpt lat="47.09943" lon="-1.18799">
        <ele>72</ele>
        <time>2023-11-12T22:33:46Z</time>
      </trkpt>
      <trkpt lat="47.09961" lon="-1.18793">
        <ele>73</ele>
        <time>2023-11-12T22:34:11Z</time>
      </trkpt>
      <trkpt lat="47.09977" lon="-1.18781">
        <ele>74</ele>
        <time>2023-11-12T22:34:35Z</time>
      </trkpt>
      <trkpt lat="47.09984" lon="-1.18754">
        <ele>74</ele>
        <time>2023-11-12T22:35:01Z</time>
      </trkpt>
      <trkpt lat="47.09976" lon="-1.18728">
        <ele>74</ele>
        <time>2023-11-12T22:35:27Z</time>
      </trkpt>
    </trkseg>
  </trk>
  <trk>
    <name><![CDATA[StCrespin_Serpillette_9.1km-9395508]]></name>
    <extensions>
      <line xmlns="http://www.topografix.com/GPX/gpx_style/0/2">
        <color>FF0000</color>
        <width>4</width>
      </line>
    </extensions>
    <trkseg>
      <trkpt lat="47.0974" lon="-1.1863">
        <ele>57</ele>
        <time>2023-11-12T16:10:08Z</time>
      </trkpt>
      <trkpt lat="47.09742" lon="-1.18649">
        <ele>57</ele>
        <time>2023-11-12T16:10:25Z</time>
      </trkpt>
      <trkpt lat="47.09717" lon="-1.18651">
        <ele>54</ele>
        <time>2023-11-12T16:10:59Z</time>
      </trkpt>
      <trkpt lat="47.09699" lon="-1.18657">
        <ele>52</ele>
        <time>2023-11-12T16:11:24Z</time>
      </trkpt>
      <trkpt lat="47.09677" lon="-1.1866">
        <ele>50</ele>
        <time>2023-11-12T16:11:53Z</time>
      </trkpt>
      <trkpt lat="47.09656" lon="-1.1866">
        <ele>47</ele>
        <time>2023-11-12T16:12:21Z</time>
      </trkpt>
      <trkpt lat="47.09642" lon="-1.1866">
        <ele>44</ele>
        <time>2023-11-12T16:12:40Z</time>
      </trkpt>
      <trkpt lat="47.09635" lon="-1.18652">
        <ele>43</ele>
        <time>2023-11-12T16:12:52Z</time>
      </trkpt>
      <trkpt lat="47.09626" lon="-1.18635">
        <ele>41</ele>
        <time>2023-11-12T16:13:11Z</time>
      </trkpt>
      <trkpt lat="47.09628" lon="-1.18616">
        <ele>40</ele>
        <time>2023-11-12T16:13:29Z</time>
      </trkpt>
      <trkpt lat="47.09633" lon="-1.18593">
        <ele>40</ele>
        <time>2023-11-12T16:13:50Z</time>
      </trkpt>
      <trkpt lat="47.09633" lon="-1.18576">
        <ele>40</ele>
        <time>2023-11-12T16:14:06Z</time>
      </trkpt>
      <trkpt lat="47.09632" lon="-1.18553">
        <ele>39</ele>
        <time>2023-11-12T16:14:27Z</time>
      </trkpt>
      <trkpt lat="47.09627" lon="-1.18531">
        <ele>38</ele>
        <time>2023-11-12T16:14:48Z</time>
      </trkpt>
      <trkpt lat="47.09627" lon="-1.18515">
        <ele>38</ele>
        <time>2023-11-12T16:15:02Z</time>
      </trkpt>
      <trkpt lat="47.09625" lon="-1.185">
        <ele>37</ele>
        <time>2023-11-12T16:15:16Z</time>
      </trkpt>
      <trkpt lat="47.0962" lon="-1.18485">
        <ele>37</ele>
        <time>2023-11-12T16:15:32Z</time>
      </trkpt>
      <trkpt lat="47.09617" lon="-1.18474">
        <ele>36</ele>
        <time>2023-11-12T16:15:42Z</time>
      </trkpt>
      <trkpt lat="47.09621" lon="-1.18446">
        <ele>37</ele>
        <time>2023-11-12T16:16:08Z</time>
      </trkpt>
      <trkpt lat="47.09621" lon="-1.18432">
        <ele>38</ele>
        <time>2023-11-12T16:16:21Z</time>
      </trkpt>
      <trkpt lat="47.09616" lon="-1.18401">
        <ele>37</ele>
        <time>2023-11-12T16:16:50Z</time>
      </trkpt>
      <trkpt lat="47.09616" lon="-1.18381">
        <ele>37</ele>
        <time>2023-11-12T16:17:08Z</time>
      </trkpt>
      <trkpt lat="47.09608" lon="-1.18324">
        <ele>36</ele>
        <time>2023-11-12T16:18:01Z</time>
      </trkpt>
      <trkpt lat="47.09605" lon="-1.18307">
        <ele>36</ele>
        <time>2023-11-12T16:18:17Z</time>
      </trkpt>
      <trkpt lat="47.09603" lon="-1.18289">
        <ele>37</ele>
        <time>2023-11-12T16:18:34Z</time>
      </trkpt>
      <trkpt lat="47.09601" lon="-1.18264">
        <ele>37</ele>
        <time>2023-11-12T16:18:56Z</time>
      </trkpt>
      <trkpt lat="47.09603" lon="-1.18243">
        <ele>38</ele>
        <time>2023-11-12T16:19:16Z</time>
      </trkpt>
      <trkpt lat="47.09608" lon="-1.18218">
        <ele>38</ele>
        <time>2023-11-12T16:19:39Z</time>
      </trkpt>
      <trkpt lat="47.09615" lon="-1.18201">
        <ele>39</ele>
        <time>2023-11-12T16:19:57Z</time>
      </trkpt>
      <trkpt lat="47.09617" lon="-1.18184">
        <ele>39</ele>
        <time>2023-11-12T16:20:13Z</time>
      </trkpt>
      <trkpt lat="47.09618" lon="-1.18162">
        <ele>39</ele>
        <time>2023-11-12T16:20:33Z</time>
      </trkpt>
      <trkpt lat="47.09624" lon="-1.18091">
        <ele>35</ele>
        <time>2023-11-12T16:21:38Z</time>
      </trkpt>
      <trkpt lat="47.09625" lon="-1.18069">
        <ele>35</ele>
        <time>2023-11-12T16:21:58Z</time>
      </trkpt>
      <trkpt lat="47.09618" lon="-1.18057">
        <ele>34</ele>
        <time>2023-11-12T16:22:12Z</time>
      </trkpt>
      <trkpt lat="47.09609" lon="-1.18047">
        <ele>33</ele>
        <time>2023-11-12T16:22:28Z</time>
      </trkpt>
      <trkpt lat="47.09604" lon="-1.18037">
        <ele>33</ele>
        <time>2023-11-12T16:22:39Z</time>
      </trkpt>
      <trkpt lat="47.09601" lon="-1.18028">
        <ele>32</ele>
        <time>2023-11-12T16:22:48Z</time>
      </trkpt>
      <trkpt lat="47.09599" lon="-1.1802">
        <ele>32</ele>
        <time>2023-11-12T16:22:56Z</time>
      </trkpt>
      <trkpt lat="47.09593" lon="-1.17956">
        <ele>33</ele>
        <time>2023-11-12T16:23:54Z</time>
      </trkpt>
      <trkpt lat="47.09592" lon="-1.17947">
        <ele>33</ele>
        <time>2023-11-12T16:24:03Z</time>
      </trkpt>
      <trkpt lat="47.0959" lon="-1.17942">
        <ele>33</ele>
        <time>2023-11-12T16:24:08Z</time>
      </trkpt>
      <trkpt lat="47.09586" lon="-1.17938">
        <ele>33</ele>
        <time>2023-11-12T16:24:14Z</time>
      </trkpt>
      <trkpt lat="47.09583" lon="-1.17932">
        <ele>33</ele>
        <time>2023-11-12T16:24:21Z</time>
      </trkpt>
      <trkpt lat="47.09578" lon="-1.17915">
        <ele>34</ele>
        <time>2023-11-12T16:24:38Z</time>
      </trkpt>
      <trkpt lat="47.09576" lon="-1.17906">
        <ele>34</ele>
        <time>2023-11-12T16:24:47Z</time>
      </trkpt>
      <trkpt lat="47.0957" lon="-1.17888">
        <ele>35</ele>
        <time>2023-11-12T16:25:05Z</time>
      </trkpt>
      <trkpt lat="47.09565" lon="-1.17872">
        <ele>35</ele>
        <time>2023-11-12T16:25:21Z</time>
      </trkpt>
      <trkpt lat="47.09559" lon="-1.17858">
        <ele>35</ele>
        <time>2023-11-12T16:25:36Z</time>
      </trkpt>
      <trkpt lat="47.09554" lon="-1.17843">
        <ele>36</ele>
        <time>2023-11-12T16:25:51Z</time>
      </trkpt>
      <trkpt lat="47.09546" lon="-1.17823">
        <ele>36</ele>
        <time>2023-11-12T16:26:12Z</time>
      </trkpt>
      <trkpt lat="47.09541" lon="-1.17812">
        <ele>35</ele>
        <time>2023-11-12T16:26:24Z</time>
      </trkpt>
      <trkpt lat="47.09535" lon="-1.178">
        <ele>35</ele>
        <time>2023-11-12T16:26:38Z</time>
      </trkpt>
      <trkpt lat="47.09527" lon="-1.17787">
        <ele>35</ele>
        <time>2023-11-12T16:26:53Z</time>
      </trkpt>
      <trkpt lat="47.0952" lon="-1.17777">
        <ele>34</ele>
        <time>2023-11-12T16:27:06Z</time>
      </trkpt>
      <trkpt lat="47.09511" lon="-1.17768">
        <ele>33</ele>
        <time>2023-11-12T16:27:21Z</time>
      </trkpt>
      <trkpt lat="47.09499" lon="-1.1776">
        <ele>32</ele>
        <time>2023-11-12T16:27:39Z</time>
      </trkpt>
      <trkpt lat="47.09509" lon="-1.17752">
        <ele>33</ele>
        <time>2023-11-12T16:27:54Z</time>
      </trkpt>
      <trkpt lat="47.09523" lon="-1.17747">
        <ele>35</ele>
        <time>2023-11-12T16:28:13Z</time>
      </trkpt>
      <trkpt lat="47.09535" lon="-1.17741">
        <ele>36</ele>
        <time>2023-11-12T16:28:30Z</time>
      </trkpt>
      <trkpt lat="47.09546" lon="-1.17739">
        <ele>38</ele>
        <time>2023-11-12T16:28:45Z</time>
      </trkpt>
      <trkpt lat="47.09549" lon="-1.17733">
        <ele>38</ele>
        <time>2023-11-12T16:28:51Z</time>
      </trkpt>
      <trkpt lat="47.09547" lon="-1.17719">
        <ele>39</ele>
        <time>2023-11-12T16:29:04Z</time>
      </trkpt>
      <trkpt lat="47.09545" lon="-1.17707">
        <ele>39</ele>
        <time>2023-11-12T16:29:16Z</time>
      </trkpt>
      <trkpt lat="47.09522" lon="-1.17615">
        <ele>37</ele>
        <time>2023-11-12T16:30:45Z</time>
      </trkpt>
      <trkpt lat="47.09519" lon="-1.17599">
        <ele>37</ele>
        <time>2023-11-12T16:31:00Z</time>
      </trkpt>
      <trkpt lat="47.09517" lon="-1.17582">
        <ele>37</ele>
        <time>2023-11-12T16:31:16Z</time>
      </trkpt>
      <trkpt lat="47.09519" lon="-1.17567">
        <ele>37</ele>
        <time>2023-11-12T16:31:29Z</time>
      </trkpt>
      <trkpt lat="47.09521" lon="-1.17559">
        <ele>37</ele>
        <time>2023-11-12T16:31:37Z</time>
      </trkpt>
      <trkpt lat="47.09526" lon="-1.17556">
        <ele>38</ele>
        <time>2023-11-12T16:31:44Z</time>
      </trkpt>
      <trkpt lat="47.09531" lon="-1.17556">
        <ele>39</ele>
        <time>2023-11-12T16:31:51Z</time>
      </trkpt>
      <trkpt lat="47.09538" lon="-1.17556">
        <ele>39</ele>
        <time>2023-11-12T16:32:00Z</time>
      </trkpt>
      <trkpt lat="47.09546" lon="-1.17555">
        <ele>40</ele>
        <time>2023-11-12T16:32:11Z</time>
      </trkpt>
      <trkpt lat="47.09553" lon="-1.17553">
        <ele>41</ele>
        <time>2023-11-12T16:32:21Z</time>
      </trkpt>
      <trkpt lat="47.0956" lon="-1.1755">
        <ele>42</ele>
        <time>2023-11-12T16:32:30Z</time>
      </trkpt>
      <trkpt lat="47.09571" lon="-1.17545">
        <ele>43</ele>
        <time>2023-11-12T16:32:46Z</time>
      </trkpt>
      <trkpt lat="47.09596" lon="-1.17532">
        <ele>46</ele>
        <time>2023-11-12T16:33:21Z</time>
      </trkpt>
      <trkpt lat="47.09606" lon="-1.17526">
        <ele>47</ele>
        <time>2023-11-12T16:33:35Z</time>
      </trkpt>
      <trkpt lat="47.09628" lon="-1.17518">
        <ele>49</ele>
        <time>2023-11-12T16:34:06Z</time>
      </trkpt>
      <trkpt lat="47.09635" lon="-1.17515">
        <ele>50</ele>
        <time>2023-11-12T16:34:15Z</time>
      </trkpt>
      <trkpt lat="47.09647" lon="-1.17515">
        <ele>52</ele>
        <time>2023-11-12T16:34:31Z</time>
      </trkpt>
      <trkpt lat="47.09655" lon="-1.17515">
        <ele>53</ele>
        <time>2023-11-12T16:34:42Z</time>
      </trkpt>
      <trkpt lat="47.09664" lon="-1.17516">
        <ele>54</ele>
        <time>2023-11-12T16:34:54Z</time>
      </trkpt>
      <trkpt lat="47.09673" lon="-1.17515">
        <ele>54</ele>
        <time>2023-11-12T16:35:06Z</time>
      </trkpt>
      <trkpt lat="47.09679" lon="-1.17516">
        <ele>55</ele>
        <time>2023-11-12T16:35:14Z</time>
      </trkpt>
      <trkpt lat="47.09689" lon="-1.17515">
        <ele>55</ele>
        <time>2023-11-12T16:35:28Z</time>
      </trkpt>
      <trkpt lat="47.09708" lon="-1.17502">
        <ele>55</ele>
        <time>2023-11-12T16:35:56Z</time>
      </trkpt>
      <trkpt lat="47.09718" lon="-1.17494">
        <ele>55</ele>
        <time>2023-11-12T16:36:11Z</time>
      </trkpt>
      <trkpt lat="47.09729" lon="-1.17487">
        <ele>55</ele>
        <time>2023-11-12T16:36:27Z</time>
      </trkpt>
      <trkpt lat="47.09744" lon="-1.17478">
        <ele>55</ele>
        <time>2023-11-12T16:36:48Z</time>
      </trkpt>
      <trkpt lat="47.09755" lon="-1.17469">
        <ele>55</ele>
        <time>2023-11-12T16:37:05Z</time>
      </trkpt>
      <trkpt lat="47.09776" lon="-1.17454">
        <ele>55</ele>
        <time>2023-11-12T16:37:36Z</time>
      </trkpt>
      <trkpt lat="47.09787" lon="-1.17445">
        <ele>56</ele>
        <time>2023-11-12T16:37:53Z</time>
      </trkpt>
      <trkpt lat="47.09806" lon="-1.17432">
        <ele>56</ele>
        <time>2023-11-12T16:38:21Z</time>
      </trkpt>
      <trkpt lat="47.09823" lon="-1.17421">
        <ele>57</ele>
        <time>2023-11-12T16:38:46Z</time>
      </trkpt>
      <trkpt lat="47.09839" lon="-1.17409">
        <ele>57</ele>
        <time>2023-11-12T16:39:10Z</time>
      </trkpt>
      <trkpt lat="47.0986" lon="-1.17394">
        <ele>57</ele>
        <time>2023-11-12T16:39:41Z</time>
      </trkpt>
      <trkpt lat="47.09876" lon="-1.1738">
        <ele>58</ele>
        <time>2023-11-12T16:40:06Z</time>
      </trkpt>
      <trkpt lat="47.09897" lon="-1.17364">
        <ele>58</ele>
        <time>2023-11-12T16:40:38Z</time>
      </trkpt>
      <trkpt lat="47.09912" lon="-1.17353">
        <ele>58</ele>
        <time>2023-11-12T16:41:00Z</time>
      </trkpt>
      <trkpt lat="47.09926" lon="-1.1734">
        <ele>59</ele>
        <time>2023-11-12T16:41:22Z</time>
      </trkpt>
      <trkpt lat="47.09943" lon="-1.17327">
        <ele>59</ele>
        <time>2023-11-12T16:41:48Z</time>
      </trkpt>
      <trkpt lat="47.09962" lon="-1.17311">
        <ele>59</ele>
        <time>2023-11-12T16:42:17Z</time>
      </trkpt>
      <trkpt lat="47.09974" lon="-1.17302">
        <ele>59</ele>
        <time>2023-11-12T16:42:35Z</time>
      </trkpt>
      <trkpt lat="47.10028" lon="-1.17265">
        <ele>62</ele>
        <time>2023-11-12T16:43:54Z</time>
      </trkpt>
      <trkpt lat="47.10044" lon="-1.17254">
        <ele>63</ele>
        <time>2023-11-12T16:44:18Z</time>
      </trkpt>
      <trkpt lat="47.10054" lon="-1.17248">
        <ele>63</ele>
        <time>2023-11-12T16:44:32Z</time>
      </trkpt>
      <trkpt lat="47.10076" lon="-1.17237">
        <ele>65</ele>
        <time>2023-11-12T16:45:03Z</time>
      </trkpt>
      <trkpt lat="47.1009" lon="-1.17227">
        <ele>66</ele>
        <time>2023-11-12T16:45:24Z</time>
      </trkpt>
      <trkpt lat="47.10109" lon="-1.17214">
        <ele>67</ele>
        <time>2023-11-12T16:45:52Z</time>
      </trkpt>
      <trkpt lat="47.10117" lon="-1.17207">
        <ele>67</ele>
        <time>2023-11-12T16:46:04Z</time>
      </trkpt>
      <trkpt lat="47.10147" lon="-1.17173">
        <ele>68</ele>
        <time>2023-11-12T16:46:55Z</time>
      </trkpt>
      <trkpt lat="47.10154" lon="-1.17166">
        <ele>68</ele>
        <time>2023-11-12T16:47:06Z</time>
      </trkpt>
      <trkpt lat="47.1016" lon="-1.17163">
        <ele>69</ele>
        <time>2023-11-12T16:47:15Z</time>
      </trkpt>
      <trkpt lat="47.1019" lon="-1.17158">
        <ele>70</ele>
        <time>2023-11-12T16:47:55Z</time>
      </trkpt>
      <trkpt lat="47.10199" lon="-1.17156">
        <ele>70</ele>
        <time>2023-11-12T16:48:07Z</time>
      </trkpt>
      <trkpt lat="47.1022" lon="-1.17139">
        <ele>71</ele>
        <time>2023-11-12T16:48:39Z</time>
      </trkpt>
      <trkpt lat="47.10233" lon="-1.17128">
        <ele>71</ele>
        <time>2023-11-12T16:48:59Z</time>
      </trkpt>
      <trkpt lat="47.10261" lon="-1.17111">
        <ele>72</ele>
        <time>2023-11-12T16:49:40Z</time>
      </trkpt>
      <trkpt lat="47.10274" lon="-1.17102">
        <ele>73</ele>
        <time>2023-11-12T16:49:59Z</time>
      </trkpt>
      <trkpt lat="47.10306" lon="-1.17075">
        <ele>75</ele>
        <time>2023-11-12T16:50:48Z</time>
      </trkpt>
      <trkpt lat="47.10331" lon="-1.17053">
        <ele>76</ele>
        <time>2023-11-12T16:51:27Z</time>
      </trkpt>
      <trkpt lat="47.1034" lon="-1.17041">
        <ele>76</ele>
        <time>2023-11-12T16:51:43Z</time>
      </trkpt>
      <trkpt lat="47.10351" lon="-1.17026">
        <ele>76</ele>
        <time>2023-11-12T16:52:03Z</time>
      </trkpt>
      <trkpt lat="47.10354" lon="-1.17017">
        <ele>76</ele>
        <time>2023-11-12T16:52:12Z</time>
      </trkpt>
      <trkpt lat="47.10364" lon="-1.16994">
        <ele>76</ele>
        <time>2023-11-12T16:52:37Z</time>
      </trkpt>
      <trkpt lat="47.1037" lon="-1.16987">
        <ele>77</ele>
        <time>2023-11-12T16:52:47Z</time>
      </trkpt>
      <trkpt lat="47.10382" lon="-1.16983">
        <ele>77</ele>
        <time>2023-11-12T16:53:04Z</time>
      </trkpt>
      <trkpt lat="47.10393" lon="-1.16983">
        <ele>78</ele>
        <time>2023-11-12T16:53:18Z</time>
      </trkpt>
      <trkpt lat="47.10407" lon="-1.16979">
        <ele>78</ele>
        <time>2023-11-12T16:53:37Z</time>
      </trkpt>
      <trkpt lat="47.10419" lon="-1.16977">
        <ele>79</ele>
        <time>2023-11-12T16:53:54Z</time>
      </trkpt>
      <trkpt lat="47.10432" lon="-1.16976">
        <ele>79</ele>
        <time>2023-11-12T16:54:11Z</time>
      </trkpt>
      <trkpt lat="47.1044" lon="-1.16978">
        <ele>79</ele>
        <time>2023-11-12T16:54:22Z</time>
      </trkpt>
      <trkpt lat="47.10449" lon="-1.16983">
        <ele>79</ele>
        <time>2023-11-12T16:54:35Z</time>
      </trkpt>
      <trkpt lat="47.10461" lon="-1.16996">
        <ele>78</ele>
        <time>2023-11-12T16:54:55Z</time>
      </trkpt>
      <trkpt lat="47.10476" lon="-1.17021">
        <ele>78</ele>
        <time>2023-11-12T16:55:25Z</time>
      </trkpt>
      <trkpt lat="47.10491" lon="-1.17052">
        <ele>78</ele>
        <time>2023-11-12T16:55:59Z</time>
      </trkpt>
      <trkpt lat="47.10505" lon="-1.17087">
        <ele>77</ele>
        <time>2023-11-12T16:56:36Z</time>
      </trkpt>
      <trkpt lat="47.1052" lon="-1.1712">
        <ele>77</ele>
        <time>2023-11-12T16:57:12Z</time>
      </trkpt>
      <trkpt lat="47.10535" lon="-1.17134">
        <ele>77</ele>
        <time>2023-11-12T16:57:36Z</time>
      </trkpt>
      <trkpt lat="47.10563" lon="-1.17142">
        <ele>78</ele>
        <time>2023-11-12T16:58:14Z</time>
      </trkpt>
      <trkpt lat="47.10665" lon="-1.17138">
        <ele>82</ele>
        <time>2023-11-12T17:00:30Z</time>
      </trkpt>
      <trkpt lat="47.10725" lon="-1.17121">
        <ele>85</ele>
        <time>2023-11-12T17:01:52Z</time>
      </trkpt>
      <trkpt lat="47.1078" lon="-1.17101">
        <ele>87</ele>
        <time>2023-11-12T17:03:07Z</time>
      </trkpt>
      <trkpt lat="47.10822" lon="-1.17088">
        <ele>88</ele>
        <time>2023-11-12T17:04:05Z</time>
      </trkpt>
      <trkpt lat="47.10861" lon="-1.17076">
        <ele>89</ele>
        <time>2023-11-12T17:04:58Z</time>
      </trkpt>
      <trkpt lat="47.1088" lon="-1.17073">
        <ele>89</ele>
        <time>2023-11-12T17:05:23Z</time>
      </trkpt>
      <trkpt lat="47.10914" lon="-1.17077">
        <ele>90</ele>
        <time>2023-11-12T17:06:09Z</time>
      </trkpt>
      <trkpt lat="47.10953" lon="-1.17079">
        <ele>90</ele>
        <time>2023-11-12T17:07:01Z</time>
      </trkpt>
      <trkpt lat="47.10974" lon="-1.17075">
        <ele>89</ele>
        <time>2023-11-12T17:07:29Z</time>
      </trkpt>
      <trkpt lat="47.11005" lon="-1.17059">
        <ele>89</ele>
        <time>2023-11-12T17:08:13Z</time>
      </trkpt>
      <trkpt lat="47.11053" lon="-1.1703">
        <ele>89</ele>
        <time>2023-11-12T17:09:22Z</time>
      </trkpt>
      <trkpt lat="47.11064" lon="-1.17033">
        <ele>89</ele>
        <time>2023-11-12T17:09:37Z</time>
      </trkpt>
      <trkpt lat="47.11129" lon="-1.16999">
        <ele>90</ele>
        <time>2023-11-12T17:11:09Z</time>
      </trkpt>
      <trkpt lat="47.11143" lon="-1.16991">
        <ele>90</ele>
        <time>2023-11-12T17:11:29Z</time>
      </trkpt>
      <trkpt lat="47.11164" lon="-1.17027">
        <ele>90</ele>
        <time>2023-11-12T17:12:12Z</time>
      </trkpt>
      <trkpt lat="47.11179" lon="-1.1707">
        <ele>90</ele>
        <time>2023-11-12T17:12:56Z</time>
      </trkpt>
      <trkpt lat="47.11301" lon="-1.17333">
        <ele>89</ele>
        <time>2023-11-12T17:17:45Z</time>
      </trkpt>
      <trkpt lat="47.11358" lon="-1.17455">
        <ele>89</ele>
        <time>2023-11-12T17:20:00Z</time>
      </trkpt>
      <trkpt lat="47.11506" lon="-1.17641">
        <ele>90</ele>
        <time>2023-11-12T17:24:20Z</time>
      </trkpt>
      <trkpt lat="47.11681" lon="-1.17883">
        <ele>88</ele>
        <time>2023-11-12T17:29:40Z</time>
      </trkpt>
      <trkpt lat="47.117" lon="-1.17892">
        <ele>88</ele>
        <time>2023-11-12T17:30:07Z</time>
      </trkpt>
      <trkpt lat="47.11719" lon="-1.17893">
        <ele>88</ele>
        <time>2023-11-12T17:30:32Z</time>
      </trkpt>
      <trkpt lat="47.11777" lon="-1.17847">
        <ele>89</ele>
        <time>2023-11-12T17:32:00Z</time>
      </trkpt>
      <trkpt lat="47.11833" lon="-1.17807">
        <ele>88</ele>
        <time>2023-11-12T17:33:23Z</time>
      </trkpt>
      <trkpt lat="47.11886" lon="-1.17765">
        <ele>87</ele>
        <time>2023-11-12T17:34:44Z</time>
      </trkpt>
      <trkpt lat="47.11915" lon="-1.17761">
        <ele>87</ele>
        <time>2023-11-12T17:35:23Z</time>
      </trkpt>
      <trkpt lat="47.11931" lon="-1.17787">
        <ele>88</ele>
        <time>2023-11-12T17:35:54Z</time>
      </trkpt>
      <trkpt lat="47.1196" lon="-1.17871">
        <ele>88</ele>
        <time>2023-11-12T17:37:20Z</time>
      </trkpt>
      <trkpt lat="47.11977" lon="-1.17984">
        <ele>89</ele>
        <time>2023-11-12T17:39:05Z</time>
      </trkpt>
      <trkpt lat="47.11991" lon="-1.18106">
        <ele>91</ele>
        <time>2023-11-12T17:40:57Z</time>
      </trkpt>
      <trkpt lat="47.11995" lon="-1.18289">
        <ele>90</ele>
        <time>2023-11-12T17:43:44Z</time>
      </trkpt>
      <trkpt lat="47.12003" lon="-1.18328">
        <ele>90</ele>
        <time>2023-11-12T17:44:21Z</time>
      </trkpt>
      <trkpt lat="47.12021" lon="-1.18353">
        <ele>90</ele>
        <time>2023-11-12T17:44:54Z</time>
      </trkpt>
      <trkpt lat="47.12105" lon="-1.18388">
        <ele>88</ele>
        <time>2023-11-12T17:46:50Z</time>
      </trkpt>
      <trkpt lat="47.12094" lon="-1.1844">
        <ele>88</ele>
        <time>2023-11-12T17:47:40Z</time>
      </trkpt>
      <trkpt lat="47.12083" lon="-1.18504">
        <ele>88</ele>
        <time>2023-11-12T17:48:40Z</time>
      </trkpt>
      <trkpt lat="47.12078" lon="-1.18548">
        <ele>88</ele>
        <time>2023-11-12T17:49:20Z</time>
      </trkpt>
      <trkpt lat="47.12079" lon="-1.18627">
        <ele>88</ele>
        <time>2023-11-12T17:50:32Z</time>
      </trkpt>
      <trkpt lat="47.12072" lon="-1.18649">
        <ele>88</ele>
        <time>2023-11-12T17:50:54Z</time>
      </trkpt>
      <trkpt lat="47.12038" lon="-1.18634">
        <ele>88</ele>
        <time>2023-11-12T17:51:41Z</time>
      </trkpt>
      <trkpt lat="47.11988" lon="-1.18619">
        <ele>89</ele>
        <time>2023-11-12T17:52:49Z</time>
      </trkpt>
      <trkpt lat="47.11956" lon="-1.18611">
        <ele>89</ele>
        <time>2023-11-12T17:53:33Z</time>
      </trkpt>
      <trkpt lat="47.11923" lon="-1.18609">
        <ele>90</ele>
        <time>2023-11-12T17:54:17Z</time>
      </trkpt>
      <trkpt lat="47.11867" lon="-1.18603">
        <ele>90</ele>
        <time>2023-11-12T17:55:32Z</time>
      </trkpt>
      <trkpt lat="47.11826" lon="-1.18593">
        <ele>91</ele>
        <time>2023-11-12T17:56:27Z</time>
      </trkpt>
      <trkpt lat="47.11734" lon="-1.18579">
        <ele>88</ele>
        <time>2023-11-12T17:58:31Z</time>
      </trkpt>
      <trkpt lat="47.11658" lon="-1.18561">
        <ele>89</ele>
        <time>2023-11-12T18:00:13Z</time>
      </trkpt>
      <trkpt lat="47.11537" lon="-1.18521">
        <ele>86</ele>
        <time>2023-11-12T18:02:59Z</time>
      </trkpt>
      <trkpt lat="47.11505" lon="-1.18505">
        <ele>86</ele>
        <time>2023-11-12T18:03:44Z</time>
      </trkpt>
      <trkpt lat="47.11454" lon="-1.18526">
        <ele>85</ele>
        <time>2023-11-12T18:04:55Z</time>
      </trkpt>
      <trkpt lat="47.11416" lon="-1.18545">
        <ele>84</ele>
        <time>2023-11-12T18:05:48Z</time>
      </trkpt>
      <trkpt lat="47.11347" lon="-1.18582">
        <ele>81</ele>
        <time>2023-11-12T18:07:26Z</time>
      </trkpt>
      <trkpt lat="47.11331" lon="-1.18565">
        <ele>81</ele>
        <time>2023-11-12T18:07:53Z</time>
      </trkpt>
      <trkpt lat="47.11312" lon="-1.18526">
        <ele>81</ele>
        <time>2023-11-12T18:08:36Z</time>
      </trkpt>
      <trkpt lat="47.11282" lon="-1.1848">
        <ele>82</ele>
        <time>2023-11-12T18:09:34Z</time>
      </trkpt>
      <trkpt lat="47.1125" lon="-1.18426">
        <ele>83</ele>
        <time>2023-11-12T18:10:39Z</time>
      </trkpt>
      <trkpt lat="47.11201" lon="-1.18444">
        <ele>83</ele>
        <time>2023-11-12T18:11:46Z</time>
      </trkpt>
      <trkpt lat="47.11141" lon="-1.18461">
        <ele>84</ele>
        <time>2023-11-12T18:13:08Z</time>
      </trkpt>
      <trkpt lat="47.11092" lon="-1.18484">
        <ele>85</ele>
        <time>2023-11-12T18:14:17Z</time>
      </trkpt>
      <trkpt lat="47.11078" lon="-1.18505">
        <ele>85</ele>
        <time>2023-11-12T18:14:43Z</time>
      </trkpt>
      <trkpt lat="47.11055" lon="-1.18563">
        <ele>84</ele>
        <time>2023-11-12T18:15:44Z</time>
      </trkpt>
      <trkpt lat="47.11023" lon="-1.18615">
        <ele>84</ele>
        <time>2023-11-12T18:16:48Z</time>
      </trkpt>
      <trkpt lat="47.10957" lon="-1.18673">
        <ele>84</ele>
        <time>2023-11-12T18:18:31Z</time>
      </trkpt>
      <trkpt lat="47.10885" lon="-1.18726">
        <ele>84</ele>
        <time>2023-11-12T18:20:18Z</time>
      </trkpt>
      <trkpt lat="47.10832" lon="-1.18767">
        <ele>84</ele>
        <time>2023-11-12T18:21:38Z</time>
      </trkpt>
      <trkpt lat="47.1076" lon="-1.18828">
        <ele>83</ele>
        <time>2023-11-12T18:23:29Z</time>
      </trkpt>
      <trkpt lat="47.10694" lon="-1.18868">
        <ele>82</ele>
        <time>2023-11-12T18:25:04Z</time>
      </trkpt>
      <trkpt lat="47.10663" lon="-1.18888">
        <ele>83</ele>
        <time>2023-11-12T18:25:49Z</time>
      </trkpt>
      <trkpt lat="47.10665" lon="-1.18906">
        <ele>83</ele>
        <time>2023-11-12T18:26:06Z</time>
      </trkpt>
      <trkpt lat="47.10687" lon="-1.18941">
        <ele>83</ele>
        <time>2023-11-12T18:26:49Z</time>
      </trkpt>
      <trkpt lat="47.10653" lon="-1.18986">
        <ele>83</ele>
        <time>2023-11-12T18:27:50Z</time>
      </trkpt>
      <trkpt lat="47.10616" lon="-1.19031">
        <ele>83</ele>
        <time>2023-11-12T18:28:54Z</time>
      </trkpt>
      <trkpt lat="47.10573" lon="-1.19079">
        <ele>82</ele>
        <time>2023-11-12T18:30:06Z</time>
      </trkpt>
      <trkpt lat="47.10472" lon="-1.19209">
        <ele>77</ele>
        <time>2023-11-12T18:33:06Z</time>
      </trkpt>
      <trkpt lat="47.10448" lon="-1.19233">
        <ele>77</ele>
        <time>2023-11-12T18:33:44Z</time>
      </trkpt>
      <trkpt lat="47.10393" lon="-1.19287">
        <ele>75</ele>
        <time>2023-11-12T18:35:13Z</time>
      </trkpt>
      <trkpt lat="47.1042" lon="-1.19358">
        <ele>76</ele>
        <time>2023-11-12T18:36:26Z</time>
      </trkpt>
      <trkpt lat="47.10326" lon="-1.19468">
        <ele>73</ele>
        <time>2023-11-12T18:39:07Z</time>
      </trkpt>
      <trkpt lat="47.10224" lon="-1.19605">
        <ele>71</ele>
        <time>2023-11-12T18:42:11Z</time>
      </trkpt>
      <trkpt lat="47.10189" lon="-1.19545">
        <ele>70</ele>
        <time>2023-11-12T18:43:23Z</time>
      </trkpt>
      <trkpt lat="47.10154" lon="-1.1948">
        <ele>69</ele>
        <time>2023-11-12T18:44:38Z</time>
      </trkpt>
      <trkpt lat="47.10116" lon="-1.19426">
        <ele>68</ele>
        <time>2023-11-12T18:45:49Z</time>
      </trkpt>
      <trkpt lat="47.10068" lon="-1.19349">
        <ele>64</ele>
        <time>2023-11-12T18:47:24Z</time>
      </trkpt>
      <trkpt lat="47.10013" lon="-1.19231">
        <ele>63</ele>
        <time>2023-11-12T18:49:34Z</time>
      </trkpt>
      <trkpt lat="47.09878" lon="-1.19306">
        <ele>56</ele>
        <time>2023-11-12T18:52:46Z</time>
      </trkpt>
      <trkpt lat="47.09768" lon="-1.19293">
        <ele>48</ele>
        <time>2023-11-12T18:55:13Z</time>
      </trkpt>
      <trkpt lat="47.09675" lon="-1.19351">
        <ele>38</ele>
        <time>2023-11-12T18:57:28Z</time>
      </trkpt>
      <trkpt lat="47.09602" lon="-1.19356">
        <ele>32</ele>
        <time>2023-11-12T18:59:06Z</time>
      </trkpt>
      <trkpt lat="47.09587" lon="-1.19009">
        <ele>31</ele>
        <time>2023-11-12T19:04:22Z</time>
      </trkpt>
      <trkpt lat="47.09628" lon="-1.18811">
        <ele>40</ele>
        <time>2023-11-12T19:07:30Z</time>
      </trkpt>
      <trkpt lat="47.09629" lon="-1.18705">
        <ele>42</ele>
        <time>2023-11-12T19:09:06Z</time>
      </trkpt>
      <trkpt lat="47.0968" lon="-1.1871">
        <ele>50</ele>
        <time>2023-11-12T19:10:14Z</time>
      </trkpt>
      <trkpt lat="47.09705" lon="-1.18695">
        <ele>53</ele>
        <time>2023-11-12T19:10:50Z</time>
      </trkpt>
      <trkpt lat="47.09716" lon="-1.18654">
        <ele>54</ele>
        <time>2023-11-12T19:11:30Z</time>
      </trkpt>
      <trkpt lat="47.09752" lon="-1.1865">
        <ele>58</ele>
        <time>2023-11-12T19:12:18Z</time>
      </trkpt>
    </trkseg>
  </trk>
</gpx>